EW3082 Weather Reports


Display with metric or nautical units.
time (UTC)temp
F
wind
direction
speed
MPH
gust
MPH
rain 1hr
in
rain 24hr
in
rain mn
in
humidity
%
barometer
mb
20260510204127 67 286 0.0 9.0 0.00 0.00 0.00 31 1021.5
20260510204021 67 18 1.0 10.0 0.00 0.00 0.00 30 1021.5
20260510203924 67 300 3.0 10.0 0.00 0.00 0.00 29 1021.5
20260510203819 67 311 3.0 10.0 0.00 0.00 0.00 30 1021.5
20260510203743 67 333 4.0 10.0 0.00 0.00 0.00 30 1021.6
20260510203620 67 11 4.0 10.0 0.00 0.00 0.00 31 1021.6
20260510203525 67 41 5.0 10.0 0.00 0.00 0.00 30 1021.6
20260510203438 67 68 5.0 10.0 0.00 0.00 0.00 29 1021.6
20260510203402 67 56 4.0 10.0 0.00 0.00 0.00 30 1021.6
20260510203216 67 23 5.0 10.0 0.00 0.00 0.00 29 1021.6
20260510203142 68 63 5.0 10.0 0.00 0.00 0.00 29 1021.7
20260510203102 67 60 4.0 10.0 0.00 0.00 0.00 29 1021.7
20260510203035 68 29 4.0 10.0 0.00 0.00 0.00 29 1021.7
20260510202941 67 80 2.0 8.0 0.00 0.00 0.00 31 1021.7
20260510202819 67 359 0.0 8.0 0.00 0.00 0.00 30 1021.7
20260510202733 67 317 1.0 8.0 0.00 0.00 0.00 30 1021.7
20260510202656 67 17 2.0 12.0 0.00 0.00 0.00 30 1021.7
20260510202529 67 276 3.0 12.0 0.00 0.00 0.00 30 1021.8
20260510202434 67 18 3.0 12.0 0.00 0.00 0.00 29 1021.8
20260510202329 67 75 4.0 12.0 0.00 0.00 0.00 30 1021.8
20260510202224 68 53 4.0 12.0 0.00 0.00 0.00 30 1021.8
20260510202131 68 44 3.0 12.0 0.00 0.00 0.00 30 1021.8
20260510202027 68 44 3.0 12.0 0.00 0.00 0.00 30 1021.8
20260510201922 68 39 4.0 12.0 0.00 0.00 0.00 30 1021.7
20260510201825 68 37 2.0 12.0 0.00 0.00 0.00 30 1021.7
20260510201719 68 47 0.0 7.0 0.00 0.00 0.00 31 1021.7
20260510201623 67 352 0.0 7.0 0.00 0.00 0.00 30 1021.7
20260510201602 67 352 0.0 7.0 0.00 0.00 0.00 30 1021.7
20260510201517 67 49 0.0 7.0 0.00 0.00 0.00 30 1021.7
20260510201417 67 316 1.0 7.0 0.00 0.00 0.00 29 1021.8
20260510201321 67 9 2.0 10.0 0.00 0.00 0.00 30 1021.8
20260510201216 67 56 3.0 10.0 0.00 0.00 0.00 29 1021.8
20260510201139 67 8 3.0 10.0 0.00 0.00 0.00 29 1021.8
20260510201035 67 27 2.0 10.0 0.00 0.00 0.00 29 1021.8
20260510200929 67 93 2.0 10.0 0.00 0.00 0.00 29 1021.8
20260510200823 67 44 3.0 10.0 0.00 0.00 0.00 29 1021.7
20260510200730 67 39 3.0 10.0 0.00 0.00 0.00 30 1021.8
20260510200623 68 41 5.0 10.0 0.00 0.00 0.00 29 1021.8
20260510200528 68 39 3.0 10.0 0.00 0.00 0.00 29 1021.9
20260510200422 68 91 1.0 8.0 0.00 0.00 0.00 29 1021.9
20260510200346 68 29 2.0 7.0 0.00 0.00 0.00 29 1021.9
20260510200219 68 27 3.0 7.0 0.00 0.00 0.00 29 1021.9
20260510200155 68 346 2.0 7.0 0.00 0.00 0.00 29 1021.9
20260510200119 67 53 1.0 4.0 0.00 0.00 0.00 30 1022.0
20260510200016 68 19 0.0 2.0 0.00 0.00 0.00 30 1022.0
20260510195933 68 291 0.0 0.0 0.00 0.00 0.00 30 1022.0
20260510195835 68 34 0.0 5.0 0.00 0.00 0.00 29 1022.0
20260510195730 68 26 0.0 5.0 0.00 0.00 0.00 30 1022.0
20260510195626 68 273 0.0 5.0 0.00 0.00 0.00 29 1022.0
20260510195528 68 262 0.0 5.0 0.00 0.00 0.00 29 1022.0
20260510195423 68 46 0.0 5.0 0.00 0.00 0.00 28 1022.0
20260510195328 67 31 0.0 5.0 0.00 0.00 0.00 29 1022.0
20260510195225 67 44 0.0 8.0 0.00 0.00 0.00 30 1022.0
20260510195119 67 330 1.0 8.0 0.00 0.00 0.00 30 1022.1
20260510195043 67 293 1.0 8.0 0.00 0.00 0.00 29 1022.1
20260510194916 67 310 0.0 8.0 0.00 0.00 0.00 31 1022.1
20260510194840 67 335 1.0 8.0 0.00 0.00 0.00 31 1022.2
20260510194743 67 330 2.0 8.0 0.00 0.00 0.00 31 1022.2
20260510194618 67 304 2.0 8.0 0.00 0.00 0.00 30 1022.2
20260510194558 67 342 2.0 8.0 0.00 0.00 0.00 29 1022.2
20260510194517 67 326 2.0 9.0 0.00 0.00 0.00 29 1022.2
20260510194442 67 60 3.0 9.0 0.00 0.00 0.00 29 1022.2
20260510194315 67 302 2.0 9.0 0.00 0.00 0.00 29 1022.2
20260510194239 68 40 1.0 9.0 0.00 0.00 0.00 29 1022.2
20260510194134 67 300 0.0 9.0 0.00 0.00 0.00 30 1022.2
20260510194029 67 311 0.0 9.0 0.00 0.00 0.00 31 1022.2
20260510193953 67 253 0.0 9.0 0.00 0.00 0.00 30 1022.3
20260510193827 67 16 2.0 9.0 0.00 0.00 0.00 30 1022.2
20260510193735 67 289 4.0 9.0 0.00 0.00 0.00 29 1022.3
20260510193630 67 66 3.0 9.0 0.00 0.00 0.00 29 1022.2
20260510193525 67 4 0.0 9.0 0.00 0.00 0.00 29 1022.3
20260510193427 67 75 2.0 9.0 0.00 0.00 0.00 30 1022.2
20260510193351 67 352 3.0 9.0 0.00 0.00 0.00 29 1022.2
20260510193225 67 30 3.0 9.0 0.00 0.00 0.00 29 1022.2
20260510193138 67 294 2.0 9.0 0.00 0.00 0.00 29 1022.2
20260510193121 67 1 3.0 9.0 0.00 0.00 0.00 29 1022.2
20260510193024 67 352 4.0 9.0 0.00 0.00 0.00 30 1022.2
20260510192925 67 31 2.0 9.0 0.00 0.00 0.00 29 1022.2
20260510192818 68 65 0.0 6.0 0.00 0.00 0.00 30 1022.2
20260510192742 68 30 0.0 6.0 0.00 0.00 0.00 30 1022.2
20260510192644 68 18 1.0 6.0 0.00 0.00 0.00 30 1022.2
20260510192519 68 53 1.0 6.0 0.00 0.00 0.00 30 1022.2
20260510192318 68 6 0.0 6.0 0.00 0.00 0.00 29 1022.2
20260510192246 67 320 0.0 6.0 0.00 0.00 0.00 30 1022.2
20260510192149 67 311 0.0 6.0 0.00 0.00 0.00 30 1022.2
20260510192044 67 288 0.0 6.0 0.00 0.00 0.00 30 1022.2
20260510191926 67 29 0.0 10.0 0.00 0.00 0.00 30 1022.2
20260510191821 67 336 0.0 10.0 0.00 0.00 0.00 28 1022.2
20260510191716 68 37 0.0 10.0 0.00 0.00 0.00 29 1022.2
20260510191620 68 305 1.0 10.0 0.00 0.00 0.00 29 1022.3
20260510191602 67 288 2.0 10.0 0.00 0.00 0.00 29 1022.2
20260510191535 68 37 3.0 10.0 0.00 0.00 0.00 29 1022.3
20260510191443 68 48 4.0 10.0 0.00 0.00 0.00 28 1022.3
20260510191318 68 53 2.0 10.0 0.00 0.00 0.00 30 1022.3
20260510191233 68 26 2.0 10.0 0.00 0.00 0.00 30 1022.3
20260510191117 68 15 2.0 10.0 0.00 0.00 0.00 30 1022.3
20260510191021 68 53 1.0 6.0 0.00 0.00 0.00 32 1022.2
20260510190916 67 37 1.0 6.0 0.00 0.00 0.00 32 1022.2
20260510190840 67 38 1.0 6.0 0.00 0.00 0.00 32 1022.2
20260510190739 67 14 1.0 7.0 0.00 0.00 0.00 32 1022.2
20260510190703 67 311 2.0 7.0 0.00 0.00 0.00 32 1022.1
20260510190537 67 33 2.0 7.0 0.00 0.00 0.00 31 1022.2
20260510190440 67 326 2.0 7.0 0.00 0.00 0.00 30 1022.2
20260510190335 67 333 3.0 7.0 0.00 0.00 0.00 31 1022.1
20260510190230 67 306 3.0 7.0 0.00 0.00 0.00 31 1022.1
20260510190205 67 317 2.0 7.0 0.00 0.00 0.00 31 1022.0
20260510190034 66 323 2.0 7.0 0.00 0.00 0.00 31 1022.0
20260510190022 67 44 3.0 7.0 0.00 0.00 0.00 31 1022.0
20260510185932 67 352 3.0 7.0 0.00 0.00 0.00 31 1022.0
20260510185824 67 323 2.0 6.0 0.00 0.00 0.00 31 1022.0
20260510185748 67 19 2.0 6.0 0.00 0.00 0.00 31 1022.0
20260510185622 67 62 2.0 7.0 0.00 0.00 0.00 31 1022.0
20260510185526 67 76 1.0 8.0 0.00 0.00 0.00 32 1022.0
20260510185441 67 354 2.0 11.0 0.00 0.00 0.00 31 1022.0
20260510185324 67 3 2.0 11.0 0.00 0.00 0.00 32 1022.0
20260510185223 67 314 2.0 11.0 0.00 0.00 0.00 30 1022.0
20260510185118 67 29 2.0 11.0 0.00 0.00 0.00 30 1022.0
20260510185041 67 14 2.0 11.0 0.00 0.00 0.00 30 1022.0
20260510184944 67 35 4.0 11.0 0.00 0.00 0.00 30 1022.0
20260510184819 67 12 5.0 11.0 0.00 0.00 0.00 31 1021.9
20260510184733 67 69 6.0 11.0 0.00 0.00 0.00 30 1021.9
20260510184637 67 58 4.0 11.0 0.00 0.00 0.00 31 1022.0
20260510184615 67 68 2.0 11.0 0.00 0.00 0.00 31 1022.0
20260510184553 67 15 0.0 6.0 0.00 0.00 0.00 32 1022.0
20260510184439 67 27 0.0 6.0 0.00 0.00 0.00 32 1022.0
20260510184354 67 45 0.0 6.0 0.00 0.00 0.00 32 1021.9
20260510184238 67 60 0.0 6.0 0.00 0.00 0.00 31 1021.9
20260510184132 67 51 2.0 6.0 0.00 0.00 0.00 31 1022.0
20260510184027 67 72 3.0 6.0 0.00 0.00 0.00 31 1022.0
20260510183930 67 89 2.0 6.0 0.00 0.00 0.00 31 1022.0
20260510183826 67 11 3.0 6.0 0.00 0.00 0.00 30 1022.0
20260510183725 67 329 3.0 10.0 0.00 0.00 0.00 30 1022.0
20260510183629 67 309 3.0 10.0 0.00 0.00 0.00 31 1022.0
20260510183544 67 301 2.0 10.0 0.00 0.00 0.00 31 1022.0
20260510183426 67 326 1.0 10.0 0.00 0.00 0.00 31 1022.0
20260510183322 67 53 2.0 10.0 0.00 0.00 0.00 31 1022.1
20260510183216 67 327 2.0 10.0 0.00 0.00 0.00 31 1022.0
20260510183120 67 70 3.0 10.0 0.00 0.00 0.00 31 1022.0
20260510183103 67 65 2.0 10.0 0.00 0.00 0.00 31 1022.0
20260510183019 67 236 3.0 10.0 0.00 0.00 0.00 31 1022.0
20260510182945 67 325 2.0 10.0 0.00 0.00 0.00 30 1022.0
20260510182819 67 308 0.0 5.0 0.00 0.00 0.00 31 1022.0
20260510182733 67 2 0.0 5.0 0.00 0.00 0.00 31 1022.0
20260510182638 67 304 0.0 5.0 0.00 0.00 0.00 31 1022.0
20260510182532 67 51 0.0 7.0 0.00 0.00 0.00 31 1021.9
20260510182427 67 322 1.0 7.0 0.00 0.00 0.00 32 1021.9
20260510182335 67 32 1.0 7.0 0.00 0.00 0.00 31 1021.9
20260510182229 67 311 0.0 7.0 0.00 0.00 0.00 30 1021.9
20260510182153 67 307 0.0 7.0 0.00 0.00 0.00 30 1021.9
20260510182027 67 293 1.0 7.0 0.00 0.00 0.00 31 1022.0
20260510181922 67 51 2.0 7.0 0.00 0.00 0.00 30 1022.0
20260510181825 67 358 2.0 7.0 0.00 0.00 0.00 30 1022.0
20260510181721 67 31 1.0 7.0 0.00 0.00 0.00 30 1022.0
20260510181619 67 23 1.0 6.0 0.00 0.00 0.00 31 1022.0
20260510181524 67 31 2.0 6.0 0.00 0.00 0.00 31 1022.0
20260510181507 67 73 1.0 6.0 0.00 0.00 0.00 31 1022.0
20260510181419 67 338 1.0 6.0 0.00 0.00 0.00 32 1022.1
20260510181342 67 41 0.0 6.0 0.00 0.00 0.00 32 1022.1
20260510181217 67 300 1.0 6.0 0.00 0.00 0.00 31 1022.2
20260510181131 67 296 1.0 6.0 0.00 0.00 0.00 30 1022.2
20260510181036 67 324 0.0 6.0 0.00 0.00 0.00 30 1022.3
20260510180934 67 347 1.0 6.0 0.00 0.00 0.00 31 1022.3
20260510180829 67 317 2.0 6.0 0.00 0.00 0.00 31 1022.3
20260510180732 67 329 2.0 6.0 0.00 0.00 0.00 31 1022.4
20260510180626 67 74 1.0 6.0 0.00 0.00 0.00 30 1022.4
20260510180521 67 24 2.0 6.0 0.00 0.00 0.00 29 1022.4
20260510180444 67 38 2.0 9.0 0.00 0.00 0.00 29 1022.4
20260510180317 67 35 2.0 9.0 0.00 0.00 0.00 29 1022.4
20260510180219 67 43 3.0 9.0 0.00 0.00 0.00 29 1022.4
20260510180158 67 42 2.0 9.0 0.00 0.00 0.00 29 1022.4
20260510180110 66 34 3.0 9.0 0.00 0.00 0.00 29 1022.4
20260510180016 67 32 3.0 9.0 0.00 0.00 0.00 28 1022.3
20260510175933 67 46 3.0 9.0 0.00 0.00 0.00 30 1022.3
20260510175835 67 13 3.0 10.0 0.00 0.00 0.00 28 1022.3
20260510175730 67 42 4.0 10.0 0.00 0.00 0.00 28 1022.3
20260510175625 67 51 4.0 10.0 0.00 0.00 0.00 28 1022.3
20260510175529 67 68 2.0 10.0 0.00 0.00 0.00 29 1022.2
20260510175428 67 44 0.0 10.0 0.00 0.00 0.00 30 1022.2
20260510175322 67 36 0.0 10.0 0.00 0.00 0.00 31 1022.2
20260510175227 67 48 0.0 10.0 0.00 0.00 0.00 29 1022.2
20260510175121 67 352 3.0 10.0 0.00 0.00 0.00 29 1022.2
20260510175016 67 315 3.0 10.0 0.00 0.00 0.00 28 1022.2
20260510174940 67 330 2.0 10.0 0.00 0.00 0.00 30 1022.2
20260510174904 67 11 0.0 0.0 0.00 0.00 0.00 30 1022.2
20260510174722 67 352 0.0 3.0 0.00 0.00 0.00 29 1022.3
20260510174616 67 29 0.0 5.0 0.00 0.00 0.00 29 1022.2
20260510174540 67 60 0.0 5.0 0.00 0.00 0.00 30 1022.2
20260510174514 67 46 0.0 5.0 0.00 0.00 0.00 29 1022.2
20260510174415 67 133 0.0 9.0 0.00 0.00 0.00 30 1022.2
20260510174330 67 59 0.0 10.0 0.00 0.00 0.00 31 1022.2
20260510174234 67 8 0.0 10.0 0.00 0.00 0.00 32 1022.2
20260510174129 67 75 0.0 10.0 0.00 0.00 0.00 31 1022.2
20260510174028 67 70 1.0 10.0 0.00 0.00 0.00 30 1022.2
20260510173952 67 52 3.0 10.0 0.00 0.00 0.00 30 1022.2
20260510173855 67 109 3.0 10.0 0.00 0.00 0.00 29 1022.1
20260510173728 67 115 3.0 10.0 0.00 0.00 0.00 29 1022.0
20260510173623 67 102 5.0 10.0 0.00 0.00 0.00 28 1022.1
20260510173526 67 271 4.0 10.0 0.00 0.00 0.00 29 1022.0
20260510173421 67 27 3.0 9.0 0.00 0.00 0.00 30 1022.0
20260510173320 67 49 4.0 9.0 0.00 0.00 0.00 29 1022.0
20260510173224 67 21 4.0 9.0 0.00 0.00 0.00 29 1022.0
20260510173119 67 36 5.0 9.0 0.00 0.00 0.00 29 1021.9
20260510173044 68 22 5.0 9.0 0.00 0.00 0.00 29 1021.9
20260510172916 68 22 4.0 9.0 0.00 0.00 0.00 30 1021.9
20260510172840 68 8 4.0 8.0 0.00 0.00 0.00 30 1021.9
20260510172715 67 8 3.0 8.0 0.00 0.00 0.00 29 1022.0
20260510172630 67 10 2.0 8.0 0.00 0.00 0.00 29 1022.0
20260510172538 67 65 0.0 8.0 0.00 0.00 0.00 31 1022.0
20260510172433 67 326 0.0 8.0 0.00 0.00 0.00 31 1022.1
20260510172328 67 60 1.0 8.0 0.00 0.00 0.00 30 1022.2
20260510172232 67 37 3.0 8.0 0.00 0.00 0.00 30 1022.2
20260510172126 67 65 3.0 8.0 0.00 0.00 0.00 31 1022.3
20260510172021 67 58 2.0 8.0 0.00 0.00 0.00 31 1022.3
20260510171945 67 307 2.0 8.0 0.00 0.00 0.00 31 1022.3
20260510171822 67 352 3.0 8.0 0.00 0.00 0.00 29 1022.3
20260510171726 67 24 3.0 8.0 0.00 0.00 0.00 29 1022.3
20260510171641 67 53 0.0 6.0 0.00 0.00 0.00 30 1022.1
20260510171544 67 10 1.0 5.0 0.00 0.00 0.00 30 1022.1
20260510171418 67 22 1.0 9.0 0.00 0.00 0.00 32 1022.1
20260510171322 67 61 1.0 10.0 0.00 0.00 0.00 30 1022.0
20260510171217 67 284 1.0 10.0 0.00 0.00 0.00 30 1022.0
20260510171116 66 44 1.0 10.0 0.00 0.00 0.00 29 1022.1
20260510171020 66 326 1.0 10.0 0.00 0.00 0.00 31 1022.1
20260510170915 66 62 1.0 10.0 0.00 0.00 0.00 31 1022.1
20260510170839 66 66 2.0 10.0 0.00 0.00 0.00 31 1022.1
20260510170754 66 68 4.0 10.0 0.00 0.00 0.00 31 1022.1
20260510170637 66 58 4.0 10.0 0.00 0.00 0.00 31 1022.1
20260510170532 66 21 4.0 10.0 0.00 0.00 0.00 31 1022.2
20260510170427 65 13 2.0 7.0 0.00 0.00 0.00 32 1022.2
20260510170355 65 56 0.0 4.0 0.00 0.00 0.00 32 1022.1
20260510170229 65 41 0.0 0.0 0.00 0.00 0.00 34 1022.2
20260510170145 65 34 0.0 0.0 0.00 0.00 0.00 33 1022.1
20260510170106 64 60 0.0 0.0 0.00 0.00 0.00 33 1022.1
20260510170023 65 34 0.0 0.0 0.00 0.00 0.00 33 1022.2
20260510165930 65 2 0.0 0.0 0.00 0.00 0.00 33 1022.2
20260510165822 65 319 0.0 5.0 0.00 0.00 0.00 31 1022.1
20260510165717 65 335 0.0 6.0 0.00 0.00 0.00 32 1022.1
20260510165625 65 309 0.0 7.0 0.00 0.00 0.00 32 1022.1
20260510165520 65 11 0.0 8.0 0.00 0.00 0.00 32 1022.0
20260510165414 65 53 0.0 8.0 0.00 0.00 0.00 32 1022.1
20260510165339 65 77 0.0 8.0 0.00 0.00 0.00 32 1022.1
20260510165233 65 43 0.0 8.0 0.00 0.00 0.00 33 1022.0
20260510165128 65 84 1.0 8.0 0.00 0.00 0.00 34 1022.0
20260510165032 65 34 2.0 8.0 0.00 0.00 0.00 32 1022.0
20260510164931 66 53 4.0 8.0 0.00 0.00 0.00 32 1021.9
20260510164826 66 354 5.0 8.0 0.00 0.00 0.00 31 1021.9
20260510164730 66 323 4.0 8.0 0.00 0.00 0.00 31 1021.9
20260510164624 66 104 2.0 8.0 0.00 0.00 0.00 30 1021.9
20260510164542 66 94 3.0 8.0 0.00 0.00 0.00 30 1021.9
20260510164519 66 110 4.0 10.0 0.00 0.00 0.00 30 1022.0
20260510164423 66 68 4.0 10.0 0.00 0.00 0.00 31 1022.0
20260510164322 66 45 4.0 10.0 0.00 0.00 0.00 31 1021.9
20260510164227 67 41 4.0 10.0 0.00 0.00 0.00 31 1021.9
20260510164121 66 54 3.0 10.0 0.00 0.00 0.00 33 1021.9
20260510164016 66 23 3.0 10.0 0.00 0.00 0.00 33 1021.9
20260510163939 66 18 4.0 10.0 0.00 0.00 0.00 33 1021.9
20260510163855 66 29 4.0 10.0 0.00 0.00 0.00 32 1021.8
20260510163737 66 23 5.0 10.0 0.00 0.00 0.00 31 1021.8
20260510163617 66 98 4.0 10.0 0.00 0.00 0.00 33 1021.7
20260510163541 66 26 3.0 9.0 0.00 0.00 0.00 33 1021.7
20260510163455 66 47 3.0 9.0 0.00 0.00 0.00 33 1021.7
20260510163328 66 30 3.0 9.0 0.00 0.00 0.00 33 1021.7
20260510163231 66 75 2.0 6.0 0.00 0.00 0.00 34 1021.7
20260510163201 66 65 2.0 6.0 0.00 0.00 0.00 34 1021.7
20260510163146 66 45 3.0 6.0 0.00 0.00 0.00 34 1021.7
20260510163029 66 28 2.0 6.0 0.00 0.00 0.00 32 1021.7
20260510162925 66 88 0.0 6.0 0.00 0.00 0.00 32 1021.7
20260510162831 66 8 0.0 6.0 0.00 0.00 0.00 35 1021.7
20260510162746 66 66 0.0 6.0 0.00 0.00 0.00 35 1021.8
20260510162629 66 8 0.0 6.0 0.00 0.00 0.00 34 1021.7
20260510162523 65 38 0.0 6.0 0.00 0.00 0.00 34 1021.7
20260510162418 65 123 0.0 6.0 0.00 0.00 0.00 34 1021.8
20260510162342 65 17 1.0 6.0 0.00 0.00 0.00 35 1021.8
20260510162217 65 13 2.0 6.0 0.00 0.00 0.00 35 1021.8
20260510162115 65 6 3.0 6.0 0.00 0.00 0.00 34 1021.8
20260510162040 65 60 3.0 7.0 0.00 0.00 0.00 34 1021.8
20260510161942 65 68 3.0 7.0 0.00 0.00 0.00 34 1021.8
20260510161817 65 39 3.0 7.0 0.00 0.00 0.00 35 1021.8
20260510161732 65 68 3.0 7.0 0.00 0.00 0.00 35 1021.8
20260510161637 65 38 4.0 7.0 0.00 0.00 0.00 35 1021.8
20260510161619 64 46 3.0 7.0 0.00 0.00 0.00 35 1021.8
20260510161531 65 36 3.0 7.0 0.00 0.00 0.00 36 1021.8
20260510161426 64 94 1.0 7.0 0.00 0.00 0.00 36 1021.8
20260510161354 64 30 2.0 7.0 0.00 0.00 0.00 37 1021.8
20260510161229 64 117 2.0 7.0 0.00 0.00 0.00 35 1021.8
20260510161132 64 56 3.0 7.0 0.00 0.00 0.00 36 1021.8
20260510161028 64 40 2.0 9.0 0.00 0.00 0.00 35 1021.9
20260510160923 64 46 1.0 13.0 0.00 0.00 0.00 37 1021.9
20260510160817 64 60 2.0 13.0 0.00 0.00 0.00 35 1021.9
20260510160721 64 25 2.0 13.0 0.00 0.00 0.00 35 1021.9
20260510160621 64 39 2.0 13.0 0.00 0.00 0.00 36 1021.9
20260510160525 64 65 2.0 13.0 0.00 0.00 0.00 35 1021.9
20260510160419 64 27 4.0 13.0 0.00 0.00 0.00 34 1021.9
20260510160344 64 5 5.0 13.0 0.00 0.00 0.00 34 1021.9
20260510160217 64 28 6.0 13.0 0.00 0.00 0.00 33 1021.9
20260510160152 64 29 6.0 13.0 0.00 0.00 0.00 34 1021.9
20260510160107 64 67 3.0 11.0 0.00 0.00 0.00 36 1021.9
20260510160030 64 98 3.0 11.0 0.00 0.00 0.00 36 1021.9
20260510155931 64 18 3.0 11.0 0.00 0.00 0.00 35 1021.9
20260510155834 64 82 3.0 11.0 0.00 0.00 0.00 35 1021.9
20260510155750 64 34 5.0 11.0 0.00 0.00 0.00 35 1022.0
20260510155632 64 44 5.0 11.0 0.00 0.00 0.00 33 1022.0
20260510155528 64 54 3.0 11.0 0.00 0.00 0.00 34 1022.0
20260510155422 64 49 3.0 11.0 0.00 0.00 0.00 35 1022.0
20260510155326 64 262 3.0 11.0 0.00 0.00 0.00 34 1022.0
20260510155220 64 77 3.0 11.0 0.00 0.00 0.00 35 1022.0
20260510155127 64 75 4.0 11.0 0.00 0.00 0.00 34 1022.0
20260510155022 64 37 5.0 11.0 0.00 0.00 0.00 34 1022.0
20260510154917 64 20 4.0 7.0 0.00 0.00 0.00 36 1022.0
20260510154821 64 47 2.0 10.0 0.00 0.00 0.00 35 1022.0
20260510154736 63 80 1.0 10.0 0.00 0.00 0.00 36 1021.9
20260510154618 63 52 0.0 10.0 0.00 0.00 0.00 36 1021.9
20260510154549 63 75 0.0 10.0 0.00 0.00 0.00 35 1021.9
20260510154533 63 64 1.0 10.0 0.00 0.00 0.00 35 1021.9
20260510154441 63 107 3.0 10.0 0.00 0.00 0.00 35 1021.9
20260510154336 63 47 4.0 10.0 0.00 0.00 0.00 35 1022.0
20260510154239 63 84 4.0 10.0 0.00 0.00 0.00 35 1022.0
20260510154154 63 64 5.0 10.0 0.00 0.00 0.00 34 1022.0
20260510154057 63 60 5.0 10.0 0.00 0.00 0.00 34 1022.0
20260510154000 63 68 4.0 11.0 0.00 0.00 0.00 34 1021.9
20260510153854 63 57 3.0 11.0 0.00 0.00 0.00 34 1022.0
20260510153737 63 105 4.0 11.0 0.00 0.00 0.00 34 1022.0
20260510153632 63 53 4.0 11.0 0.00 0.00 0.00 34 1021.9
20260510153541 63 59 4.0 11.0 0.00 0.00 0.00 34 1021.9
20260510153435 64 41 3.0 11.0 0.00 0.00 0.00 34 1021.9
20260510153330 64 43 3.0 11.0 0.00 0.00 0.00 33 1021.8
20260510153224 64 67 6.0 11.0 0.00 0.00 0.00 34 1021.8
20260510153127 64 59 4.0 11.0 0.00 0.00 0.00 34 1021.7
20260510153056 63 37 2.0 11.0 0.00 0.00 0.00 36 1021.7
20260510153024 63 6 1.0 9.0 0.00 0.00 0.00 36 1021.7
20260510152917 63 46 1.0 9.0 0.00 0.00 0.00 35 1021.6
20260510152825 63 18 3.0 9.0 0.00 0.00 0.00 35 1021.6
20260510152750 63 45 4.0 9.0 0.00 0.00 0.00 37 1021.6
20260510152623 63 29 2.0 9.0 0.00 0.00 0.00 37 1021.6
20260510152518 63 105 3.0 9.0 0.00 0.00 0.00 35 1021.6
20260510152442 63 93 3.0 9.0 0.00 0.00 0.00 35 1021.6
20260510152317 63 20 5.0 11.0 0.00 0.00 0.00 35 1021.6
20260510152232 63 86 4.0 11.0 0.00 0.00 0.00 35 1021.6
20260510152140 63 99 2.0 11.0 0.00 0.00 0.00 36 1021.6
20260510152055 63 56 0.0 11.0 0.00 0.00 0.00 36 1021.6
20260510151937 62 84 0.0 11.0 0.00 0.00 0.00 36 1021.6
20260510151832 62 53 1.0 11.0 0.00 0.00 0.00 36 1021.5
20260510151727 62 58 3.0 11.0 0.00 0.00 0.00 37 1021.5
20260510151650 62 139 4.0 11.0 0.00 0.00 0.00 36 1021.5
20260510151543 62 131 3.0 11.0 0.00 0.00 0.00 37 1021.5
20260510151523 62 122 4.0 11.0 0.00 0.00 0.00 37 1021.5
20260510151427 62 80 3.0 10.0 0.00 0.00 0.00 38 1021.5
20260510151326 62 104 2.0 10.0 0.00 0.00 0.00 39 1021.6
20260510151250 62 58 3.0 10.0 0.00 0.00 0.00 37 1021.6
20260510151124 62 101 3.0 10.0 0.00 0.00 0.00 37 1021.5
20260510151048 62 8 4.0 10.0 0.00 0.00 0.00 38 1021.6
20260510150922 61 101 3.0 10.0 0.00 0.00 0.00 38 1021.6
20260510150817 61 63 2.0 10.0 0.00 0.00 0.00 38 1021.6
20260510150721 61 26 4.0 10.0 0.00 0.00 0.00 37 1021.6
20260510150619 61 92 3.0 10.0 0.00 0.00 0.00 37 1021.6
20260510150543 61 124 2.0 10.0 0.00 0.00 0.00 37 1021.6
20260510150418 61 87 3.0 9.0 0.00 0.00 0.00 37 1021.6
20260510150333 61 16 3.0 9.0 0.00 0.00 0.00 37 1021.6
20260510150237 61 66 3.0 9.0 0.00 0.00 0.00 38 1021.6
20260510150211 61 29 4.0 9.0 0.00 0.00 0.00 40 1021.6
20260510150112 60 77 3.0 9.0 0.00 0.00 0.00 39 1021.6
20260510150049 61 52 3.0 9.0 0.00 0.00 0.00 40 1021.6
20260510145934 60 61 3.0 6.0 0.00 0.00 0.00 40 1021.5
20260510145831 60 36 2.0 7.0 0.00 0.00 0.00 40 1021.6
20260510145725 60 79 3.0 7.0 0.00 0.00 0.00 40 1021.6
20260510145629 60 37 3.0 7.0 0.00 0.00 0.00 39 1021.5
20260510145524 60 113 3.0 7.0 0.00 0.00 0.00 40 1021.6
20260510145419 60 20 3.0 9.0 0.00 0.00 0.00 40 1021.5
20260510145343 60 57 3.0 9.0 0.00 0.00 0.00 39 1021.5
20260510145245 60 73 1.0 9.0 0.00 0.00 0.00 39 1021.5
20260510145119 60 63 2.0 9.0 0.00 0.00 0.00 40 1021.5
20260510145018 60 91 2.0 9.0 0.00 0.00 0.00 40 1021.5
20260510144942 60 68 2.0 9.0 0.00 0.00 0.00 40 1021.5
20260510144815 60 59 4.0 9.0 0.00 0.00 0.00 40 1021.4
20260510144739 60 56 5.0 9.0 0.00 0.00 0.00 39 1021.4
20260510144703 60 48 4.0 9.0 0.00 0.00 0.00 40 1021.4
20260510144615 59 29 4.0 9.0 0.00 0.00 0.00 40 1021.4
20260510144517 60 86 2.0 5.0 0.00 0.00 0.00 40 1021.5
20260510144431 60 60 1.0 6.0 0.00 0.00 0.00 41 1021.5
20260510144336 60 340 0.0 8.0 0.00 0.00 0.00 41 1021.5
20260510144214 60 53 1.0 8.0 0.00 0.00 0.00 40 1021.6
20260510144129 60 60 2.0 8.0 0.00 0.00 0.00 40 1021.6
20260510144054 60 58 1.0 8.0 0.00 0.00 0.00 41 1021.6
20260510143957 60 309 0.0 8.0 0.00 0.00 0.00 41 1021.7
20260510143830 59 35 0.0 8.0 0.00 0.00 0.00 41 1021.6
20260510143726 59 77 2.0 8.0 0.00 0.00 0.00 40 1021.6
20260510143629 59 50 3.0 8.0 0.00 0.00 0.00 39 1021.6
20260510143528 60 70 2.0 8.0 0.00 0.00 0.00 40 1021.6
20260510143423 60 68 2.0 7.0 0.00 0.00 0.00 39 1021.6
20260510143327 60 67 1.0 7.0 0.00 0.00 0.00 40 1021.7
20260510143241 60 93 0.0 7.0 0.00 0.00 0.00 41 1021.7
20260510143124 60 42 0.0 7.0 0.00 0.00 0.00 41 1021.7
20260510143101 59 92 0.0 7.0 0.00 0.00 0.00 41 1021.7
20260510143020 60 20 1.0 7.0 0.00 0.00 0.00 40 1021.7
20260510142921 60 20 0.0 7.0 0.00 0.00 0.00 41 1021.7
20260510142816 60 86 0.0 7.0 0.00 0.00 0.00 41 1021.7
20260510142714 59 65 0.0 7.0 0.00 0.00 0.00 41 1021.7
20260510142638 59 65 1.0 7.0 0.00 0.00 0.00 41 1021.7
20260510142602 59 37 2.0 7.0 0.00 0.00 0.00 41 1021.8
20260510142436 59 58 2.0 7.0 0.00 0.00 0.00 42 1021.8
20260510142400 59 77 2.0 7.0 0.00 0.00 0.00 41 1021.7
20260510142214 59 63 2.0 7.0 0.00 0.00 0.00 40 1021.8
20260510142129 59 72 3.0 7.0 0.00 0.00 0.00 40 1021.8
20260510142033 59 63 2.0 7.0 0.00 0.00 0.00 40 1021.8
20260510141932 59 75 2.0 7.0 0.00 0.00 0.00 40 1021.7
20260510141828 59 36 2.0 7.0 0.00 0.00 0.00 40 1021.8
20260510141731 59 352 0.0 6.0 0.00 0.00 0.00 40 1021.7
20260510141627 59 103 0.0 5.0 0.00 0.00 0.00 41 1021.7
20260510141556 59 43 0.0 5.0 0.00 0.00 0.00 42 1021.7
20260510141522 59 13 0.0 5.0 0.00 0.00 0.00 42 1021.6
20260510141426 59 72 0.0 7.0 0.00 0.00 0.00 42 1021.6
20260510141324 59 15 0.0 7.0 0.00 0.00 0.00 42 1021.6
20260510141249 59 49 0.0 7.0 0.00 0.00 0.00 41 1021.6
20260510141123 59 79 1.0 7.0 0.00 0.00 0.00 41 1021.5
20260510141017 59 58 1.0 7.0 0.00 0.00 0.00 43 1021.5
20260510140922 58 44 1.0 7.0 0.00 0.00 0.00 44 1021.5
20260510140836 58 334 1.0 7.0 0.00 0.00 0.00 43 1021.5
20260510140720 58 55 2.0 10.0 0.00 0.00 0.00 43 1021.5
20260510140615 58 45 1.0 10.0 0.00 0.00 0.00 44 1021.5
20260510140542 58 350 0.0 10.0 0.00 0.00 0.00 44 1021.5
20260510140437 58 68 2.0 10.0 0.00 0.00 0.00 43 1021.5
20260510140401 58 68 3.0 10.0 0.00 0.00 0.00 43 1021.5
20260510140215 58 61 2.0 10.0 0.00 0.00 0.00 44 1021.5
20260510140156 57 44 1.0 10.0 0.00 0.00 0.00 44 1021.5
20260510140141 58 86 1.0 10.0 0.00 0.00 0.00 44 1021.5
20260510140028 58 13 2.0 10.0 0.00 0.00 0.00 43 1021.5
20260510135925 57 69 2.0 10.0 0.00 0.00 0.00 42 1021.5
20260510135822 57 68 2.0 10.0 0.00 0.00 0.00 43 1021.5
20260510135725 57 57 3.0 8.0 0.00 0.00 0.00 43 1021.5
20260510135650 57 58 3.0 8.0 0.00 0.00 0.00 43 1021.4
20260510135522 57 84 2.0 6.0 0.00 0.00 0.00 43 1021.4
20260510135417 57 65 2.0 6.0 0.00 0.00 0.00 43 1021.4
20260510135340 57 25 1.0 6.0 0.00 0.00 0.00 44 1021.4
20260510135233 57 54 0.0 6.0 0.00 0.00 0.00 43 1021.4
20260510135137 57 67 0.0 6.0 0.00 0.00 0.00 43 1021.4
20260510135051 57 16 1.0 6.0 0.00 0.00 0.00 43 1021.4
20260510134938 57 70 1.0 6.0 0.00 0.00 0.00 42 1021.4
20260510134833 57 89 0.0 7.0 0.00 0.00 0.00 44 1021.4
20260510134728 57 76 0.0 9.0 0.00 0.00 0.00 44 1021.3
20260510134632 57 29 1.0 9.0 0.00 0.00 0.00 44 1021.4
20260510134606 57 65 1.0 9.0 0.00 0.00 0.00 43 1021.3
20260510134547 57 55 1.0 9.0 0.00 0.00 0.00 43 1021.3
20260510134450 57 38 0.0 9.0 0.00 0.00 0.00 43 1021.3
20260510134323 57 30 1.0 9.0 0.00 0.00 0.00 43 1021.3
20260510134231 57 63 1.0 9.0 0.00 0.00 0.00 44 1021.3
20260510134126 57 53 2.0 9.0 0.00 0.00 0.00 43 1021.3
20260510134020 57 49 3.0 9.0 0.00 0.00 0.00 43 1021.3
20260510133925 57 53 3.0 9.0 0.00 0.00 0.00 43 1021.3
20260510133819 57 326 3.0 8.0 0.00 0.00 0.00 43 1021.3
20260510133743 57 41 3.0 8.0 0.00 0.00 0.00 43 1021.3
20260510133638 57 18 0.0 4.0 0.00 0.00 0.00 44 1021.2
20260510133515 57 23 0.0 1.0 0.00 0.00 0.00 44 1021.3
20260510133419 57 24 0.0 1.0 0.00 0.00 0.00 43 1021.3
20260510133334 57 47 0.0 1.0 0.00 0.00 0.00 43 1021.3
20260510133238 57 44 0.0 0.0 0.00 0.00 0.00 43 1021.2
20260510133133 57 4 0.0 0.0 0.00 0.00 0.00 44 1021.2
20260510133100 56 53 0.0 0.0 0.00 0.00 0.00 43 1021.3
20260510133029 57 79 0.0 0.0 0.00 0.00 0.00 43 1021.3
20260510132933 57 1 0.0 0.0 0.00 0.00 0.00 43 1021.3
20260510132831 57 35 0.0 0.0 0.00 0.00 0.00 44 1021.2
20260510132726 57 51 0.0 0.0 0.00 0.00 0.00 44 1021.2
20260510132629 57 79 0.0 0.0 0.00 0.00 0.00 45 1021.2
20260510132524 57 49 0.0 6.0 0.00 0.00 0.00 44 1021.1
20260510132418 57 22 0.0 6.0 0.00 0.00 0.00 44 1021.0
20260510132322 57 61 0.0 6.0 0.00 0.00 0.00 44 1021.1
20260510132237 57 69 0.0 6.0 0.00 0.00 0.00 45 1021.1
20260510132124 57 44 0.0 6.0 0.00 0.00 0.00 44 1021.1
20260510132019 57 75 0.0 6.0 0.00 0.00 0.00 44 1021.1
20260510131943 57 56 0.0 6.0 0.00 0.00 0.00 44 1021.2
20260510131817 57 89 1.0 6.0 0.00 0.00 0.00 43 1021.2
20260510131741 57 2 1.0 6.0 0.00 0.00 0.00 43 1021.2
20260510131616 57 343 0.0 0.0 0.00 0.00 0.00 44 1021.0
20260510131601 56 58 0.0 0.0 0.00 0.00 0.00 44 1021.0
20260510131531 57 4 0.0 0.0 0.00 0.00 0.00 44 1021.0
20260510131435 57 35 0.0 0.0 0.00 0.00 0.00 44 1021.0
20260510131334 57 70 0.0 8.0 0.00 0.00 0.00 44 1021.0
20260510131229 57 32 0.0 8.0 0.00 0.00 0.00 44 1021.0
20260510131133 57 37 0.0 8.0 0.00 0.00 0.00 45 1021.0
20260510131028 57 28 0.0 8.0 0.00 0.00 0.00 45 1021.0
20260510130919 57 56 0.0 9.0 0.00 0.00 0.00 44 1021.0
20260510130823 57 55 0.0 9.0 0.00 0.00 0.00 44 1021.0
20260510130722 57 35 0.0 9.0 0.00 0.00 0.00 44 1021.0
20260510130617 57 36 1.0 9.0 0.00 0.00 0.00 44 1021.0
20260510130520 57 28 1.0 9.0 0.00 0.00 0.00 44 1021.0
20260510130434 57 46 0.0 9.0 0.00 0.00 0.00 45 1021.0
20260510130338 57 50 2.0 9.0 0.00 0.00 0.00 45 1021.0
20260510130233 57 71 2.0 9.0 0.00 0.00 0.00 44 1021.0
20260510130155 56 21 1.0 9.0 0.00 0.00 0.00 44 1021.0
20260510130138 57 53 1.0 9.0 0.00 0.00 0.00 44 1021.0
20260510130030 57 2 0.0 2.0 0.00 0.00 0.00 44 1021.0
20260510125947 57 31 0.0 5.0 0.00 0.00 0.00 45 1020.9
20260510125828 57 28 0.0 7.0 0.00 0.00 0.00 45 1020.9
20260510125731 57 61 0.0 7.0 0.00 0.00 0.00 45 1020.8
20260510125625 57 72 0.0 7.0 0.00 0.00 0.00 44 1020.8
20260510125520 57 17 0.0 7.0 0.00 0.00 0.00 44 1020.8
20260510125415 57 57 0.0 7.0 0.00 0.00 0.00 44 1020.7
20260510125319 57 25 0.0 7.0 0.00 0.00 0.00 43 1020.7
20260510125217 57 39 2.0 7.0 0.00 0.00 0.00 43 1020.7
20260510125122 57 51 3.0 7.0 0.00 0.00 0.00 43 1020.7
20260510125035 57 59 3.0 7.0 0.00 0.00 0.00 43 1020.7
20260510125000 57 46 2.0 8.0 0.00 0.00 0.00 43 1020.7
20260510124834 57 63 0.0 8.0 0.00 0.00 0.00 43 1020.7
20260510124729 57 74 0.0 8.0 0.00 0.00 0.00 43 1020.7
20260510124652 57 18 1.0 8.0 0.00 0.00 0.00 43 1020.7
20260510124541 56 24 0.0 9.0 0.00 0.00 0.00 43 1020.7
20260510124526 57 80 1.0 9.0 0.00 0.00 0.00 44 1020.7
20260510124435 57 49 0.0 9.0 0.00 0.00 0.00 43 1020.6
20260510124358 57 68 0.0 9.0 0.00 0.00 0.00 44 1020.5
20260510124231 57 50 2.0 9.0 0.00 0.00 0.00 43 1020.6
20260510124127 57 69 3.0 9.0 0.00 0.00 0.00 43 1020.5
20260510124021 57 62 2.0 9.0 0.00 0.00 0.00 44 1020.5
20260510123945 57 64 3.0 9.0 0.00 0.00 0.00 43 1020.5
20260510123819 57 69 2.0 9.0 0.00 0.00 0.00 43 1020.6
20260510123726 57 6 0.0 9.0 0.00 0.00 0.00 44 1020.6
20260510123621 56 28 0.0 6.0 0.00 0.00 0.00 43 1020.4
20260510123544 56 28 1.0 6.0 0.00 0.00 0.00 43 1020.4
20260510123417 56 360 1.0 10.0 0.00 0.00 0.00 43 1020.3
20260510123341 56 19 0.0 10.0 0.00 0.00 0.00 43 1020.3
20260510123216 56 65 0.0 10.0 0.00 0.00 0.00 43 1020.2
20260510123131 56 58 0.0 10.0 0.00 0.00 0.00 44 1020.2
20260510123037 56 56 0.0 10.0 0.00 0.00 0.00 44 1020.2
20260510123005 56 50 0.0 10.0 0.00 0.00 0.00 44 1020.1
20260510122914 56 63 0.0 10.0 0.00 0.00 0.00 43 1020.1
20260510122829 56 21 1.0 10.0 0.00 0.00 0.00 43 1020.1
20260510122734 56 88 3.0 10.0 0.00 0.00 0.00 43 1020.0
20260510122649 56 3 2.0 10.0 0.00 0.00 0.00 43 1020.0
20260510122531 56 62 0.0 7.0 0.00 0.00 0.00 44 1019.9
20260510122427 56 36 0.0 7.0 0.00 0.00 0.00 44 1019.8
20260510122350 56 37 1.0 7.0 0.00 0.00 0.00 44 1019.9
20260510122229 57 24 1.0 7.0 0.00 0.00 0.00 43 1019.8
20260510122124 57 53 1.0 6.0 0.00 0.00 0.00 44 1019.8
20260510122028 57 84 0.0 6.0 0.00 0.00 0.00 44 1019.8
20260510121923 57 54 0.0 6.0 0.00 0.00 0.00 44 1019.8
20260510121817 57 30 0.0 6.0 0.00 0.00 0.00 43 1019.7
20260510121722 57 63 1.0 6.0 0.00 0.00 0.00 44 1019.8
20260510121651 56 51 0.0 6.0 0.00 0.00 0.00 44 1019.8
20260510121636 57 30 1.0 6.0 0.00 0.00 0.00 44 1019.8
20260510121523 57 75 0.0 4.0 0.00 0.00 0.00 44 1019.8
20260510121419 57 44 0.0 5.0 0.00 0.00 0.00 44 1019.7
20260510121324 57 33 0.0 5.0 0.00 0.00 0.00 44 1019.7
20260510121217 57 14 0.0 6.0 0.00 0.00 0.00 44 1019.6
20260510121131 57 63 0.0 6.0 0.00 0.00 0.00 44 1019.6
20260510121035 56 10 0.0 6.0 0.00 0.00 0.00 44 1019.6
20260510120950 56 75 0.0 8.0 0.00 0.00 0.00 44 1019.6
20260510120832 56 34 0.0 8.0 0.00 0.00 0.00 44 1019.5
20260510120731 56 333 1.0 8.0 0.00 0.00 0.00 44 1019.5
20260510120625 56 24 1.0 8.0 0.00 0.00 0.00 44 1019.5
20260510120529 56 45 2.0 8.0 0.00 0.00 0.00 44 1019.5
20260510120433 56 37 3.0 8.0 0.00 0.00 0.00 43 1019.4
20260510120348 56 67 3.0 8.0 0.00 0.00 0.00 43 1019.4
20260510120250 56 68 2.0 8.0 0.00 0.00 0.00 43 1019.3
20260510120152 56 63 0.0 8.0 0.00 0.00 0.00 44 1019.3
20260510120135 56 68 0.0 8.0 0.00 0.00 0.00 44 1019.3
20260510120020 56 37 0.0 8.0 0.00 0.00 0.00 44 1019.2
20260510115917 56 58 0.0 10.0 0.00 0.00 0.00 43 1019.2
20260510115841 57 58 1.0 10.0 0.00 0.00 0.00 43 1019.2
20260510115717 57 98 3.0 10.0 0.00 0.00 0.00 43 1019.1
20260510115631 57 63 3.0 10.0 0.00 0.00 0.00 43 1019.1
20260510115535 57 23 2.0 10.0 0.00 0.00 0.00 43 1019.1
20260510115429 57 41 2.0 10.0 0.00 0.00 0.00 43 1019.1
20260510115333 57 63 3.0 10.0 0.00 0.00 0.00 43 1019.1
20260510115248 57 80 4.0 10.0 0.00 0.00 0.00 42 1019.0
20260510115135 57 53 4.0 10.0 0.00 0.00 0.00 43 1019.0
20260510115030 57 60 2.0 7.0 0.00 0.00 0.00 43 1019.0
20260510114954 57 82 0.0 8.0 0.00 0.00 0.00 43 1019.1
20260510114848 57 66 0.0 8.0 0.00 0.00 0.00 44 1019.2
20260510114731 57 49 0.0 8.0 0.00 0.00 0.00 43 1019.2
20260510114627 57 76 0.0 8.0 0.00 0.00 0.00 43 1019.2
20260510114539 56 4 0.0 8.0 0.00 0.00 0.00 43 1019.3
20260510114522 57 45 0.0 8.0 0.00 0.00 0.00 43 1019.2
20260510114429 57 28 0.0 8.0 0.00 0.00 0.00 43 1019.2
20260510114324 57 31 1.0 8.0 0.00 0.00 0.00 42 1019.1
20260510114218 57 65 2.0 8.0 0.00 0.00 0.00 42 1018.9
20260510114142 57 71 3.0 9.0 0.00 0.00 0.00 43 1018.9
20260510114045 57 81 2.0 9.0 0.00 0.00 0.00 43 1018.9
20260510113919 57 22 1.0 9.0 0.00 0.00 0.00 43 1018.9
20260510113814 57 51 2.0 9.0 0.00 0.00 0.00 43 1018.9
20260510113718 57 65 2.0 9.0 0.00 0.00 0.00 42 1018.9
20260510113617 57 27 1.0 11.0 0.00 0.00 0.00 43 1018.9
20260510113541 57 53 2.0 11.0 0.00 0.00 0.00 42 1018.9
20260510113415 57 33 4.0 11.0 0.00 0.00 0.00 42 1018.9
20260510113339 57 59 4.0 11.0 0.00 0.00 0.00 42 1018.9
20260510113214 57 30 2.0 11.0 0.00 0.00 0.00 42 1018.9
20260510113129 57 65 1.0 11.0 0.00 0.00 0.00 43 1018.9
20260510113033 57 63 1.0 11.0 0.00 0.00 0.00 43 1018.9
20260510113005 56 68 1.0 11.0 0.00 0.00 0.00 43 1018.8
20260510112935 57 18 3.0 11.0 0.00 0.00 0.00 43 1018.8
20260510112857 57 63 4.0 11.0 0.00 0.00 0.00 43 1018.8
20260510112731 57 51 5.0 11.0 0.00 0.00 0.00 43 1018.9
20260510112626 57 28 4.0 11.0 0.00 0.00 0.00 43 1018.8
20260510112530 57 66 2.0 6.0 0.00 0.00 0.00 44 1018.7
20260510112425 57 47 1.0 6.0 0.00 0.00 0.00 44 1018.7
20260510112319 57 65 0.0 10.0 0.00 0.00 0.00 44 1018.7
20260510112227 57 65 2.0 10.0 0.00 0.00 0.00 43 1018.7
20260510112122 57 85 1.0 10.0 0.00 0.00 0.00 44 1018.6
20260510112017 57 64 0.0 10.0 0.00 0.00 0.00 44 1018.6
20260510111942 57 40 0.0 10.0 0.00 0.00 0.00 44 1018.6
20260510111816 57 46 0.0 10.0 0.00 0.00 0.00 44 1018.6
20260510111719 57 44 2.0 10.0 0.00 0.00 0.00 44 1018.5
20260510111614 57 69 4.0 10.0 0.00 0.00 0.00 44 1018.5
20260510111538 57 50 4.0 10.0 0.00 0.00 0.00 44 1018.5
20260510111510 57 53 2.0 10.0 0.00 0.00 0.00 44 1018.5
20260510111417 57 71 2.0 9.0 0.00 0.00 0.00 44 1018.5
20260510111332 57 60 2.0 9.0 0.00 0.00 0.00 44 1018.5
20260510111236 57 37 0.0 8.0 0.00 0.00 0.00 45 1018.5
20260510111131 57 60 0.0 4.0 0.00 0.00 0.00 45 1018.6
20260510111055 57 93 0.0 6.0 0.00 0.00 0.00 45 1018.6
20260510110928 57 51 0.0 6.0 0.00 0.00 0.00 45 1018.7
20260510110822 57 63 0.0 6.0 0.00 0.00 0.00 45 1018.8
20260510110730 57 79 0.0 9.0 0.00 0.00 0.00 44 1018.8
20260510110624 57 37 0.0 9.0 0.00 0.00 0.00 44 1018.8
20260510110519 57 349 1.0 9.0 0.00 0.00 0.00 44 1018.7
20260510110424 57 46 2.0 9.0 0.00 0.00 0.00 44 1018.7
20260510110318 57 23 2.0 9.0 0.00 0.00 0.00 43 1018.7
20260510110241 57 16 1.0 10.0 0.00 0.00 0.00 43 1018.7
20260510110207 57 342 1.0 10.0 0.00 0.00 0.00 43 1018.7
20260510110017 57 32 2.0 10.0 0.00 0.00 0.00 42 1018.6
20260510105933 57 66 2.0 10.0 0.00 0.00 0.00 42 1018.6
20260510105836 57 21 3.0 10.0 0.00 0.00 0.00 43 1018.6
20260510105727 57 35 4.0 10.0 0.00 0.00 0.00 42 1018.5
20260510105651 57 93 3.0 10.0 0.00 0.00 0.00 43 1018.5
20260510105524 57 70 4.0 10.0 0.00 0.00 0.00 43 1018.4
20260510105418 57 58 5.0 10.0 0.00 0.00 0.00 43 1018.3
20260510105326 57 46 3.0 9.0 0.00 0.00 0.00 44 1018.3
20260510105221 57 60 3.0 9.0 0.00 0.00 0.00 43 1018.4
20260510105116 57 69 3.0 9.0 0.00 0.00 0.00 44 1018.4
20260510105040 58 46 3.0 8.0 0.00 0.00 0.00 44 1018.4
20260510105004 58 46 3.0 8.0 0.00 0.00 0.00 44 1018.5
20260510104838 58 52 2.0 8.0 0.00 0.00 0.00 45 1018.4
20260510104733 58 27 3.0 8.0 0.00 0.00 0.00 45 1018.4
20260510104638 57 76 3.0 8.0 0.00 0.00 0.00 44 1018.4
20260510104628 58 87 3.0 8.0 0.00 0.00 0.00 44 1018.4
20260510104535 58 56 5.0 8.0 0.00 0.00 0.00 44 1018.3
20260510104431 58 63 5.0 8.0 0.00 0.00 0.00 43 1018.3
20260510104325 58 1 1.0 8.0 0.00 0.00 0.00 44 1018.3
20260510104229 58 60 0.0 4.0 0.00 0.00 0.00 44 1018.4
20260510104124 58 66 0.0 4.0 0.00 0.00 0.00 43 1018.3
20260510104018 58 34 0.0 4.0 0.00 0.00 0.00 43 1018.3
20260510103926 58 32 0.0 4.0 0.00 0.00 0.00 43 1018.3
20260510103822 58 30 0.0 4.0 0.00 0.00 0.00 44 1018.3
20260510103717 58 60 1.0 4.0 0.00 0.00 0.00 43 1018.3
20260510103621 58 349 1.0 4.0 0.00 0.00 0.00 43 1018.3
20260510103535 58 35 0.0 0.0 0.00 0.00 0.00 44 1018.3
20260510103418 58 44 0.0 0.0 0.00 0.00 0.00 43 1018.3
20260510103333 58 69 0.0 0.0 0.00 0.00 0.00 43 1018.3
20260510103238 58 49 0.0 0.0 0.00 0.00 0.00 43 1018.3
20260510103136 58 49 0.0 0.0 0.00 0.00 0.00 43 1018.3
20260510103039 58 93 0.0 0.0 0.00 0.00 0.00 43 1018.2
20260510102935 58 32 0.0 3.0 0.00 0.00 0.00 43 1018.2
20260510102837 58 54 0.0 5.0 0.00 0.00 0.00 43 1018.2
20260510102733 58 58 0.0 6.0 0.00 0.00 0.00 43 1018.2
20260510102628 58 36 0.0 6.0 0.00 0.00 0.00 42 1018.2
20260510102531 58 39 0.0 6.0 0.00 0.00 0.00 42 1018.1
20260510102430 58 27 0.0 6.0 0.00 0.00 0.00 42 1018.1
20260510102326 58 341 0.0 7.0 0.00 0.00 0.00 42 1018.1
20260510102229 58 40 0.0 7.0 0.00 0.00 0.00 42 1018.0
20260510102125 58 30 1.0 7.0 0.00 0.00 0.00 42 1018.0
20260510102028 58 61 2.0 7.0 0.00 0.00 0.00 42 1018.0
20260510101943 58 60 3.0 7.0 0.00 0.00 0.00 42 1018.0
20260510101846 58 27 3.0 7.0 0.00 0.00 0.00 42 1018.0
20260510101748 58 51 2.0 7.0 0.00 0.00 0.00 41 1018.0
20260510101621 58 48 1.0 7.0 0.00 0.00 0.00 42 1018.0
20260510101530 58 67 1.0 7.0 0.00 0.00 0.00 42 1017.9
20260510101518 58 41 2.0 7.0 0.00 0.00 0.00 42 1017.9
20260510101443 58 79 1.0 7.0 0.00 0.00 0.00 43 1017.9
20260510101326 58 37 0.0 7.0 0.00 0.00 0.00 43 1017.9
20260510101239 58 78 2.0 7.0 0.00 0.00 0.00 43 1017.8
20260510101142 58 71 2.0 7.0 0.00 0.00 0.00 43 1017.8
20260510101016 58 49 1.0 6.0 0.00 0.00 0.00 44 1017.7
20260510100922 58 91 2.0 6.0 0.00 0.00 0.00 44 1017.7
20260510100815 58 90 2.0 6.0 0.00 0.00 0.00 44 1017.7
20260510100744 58 65 1.0 6.0 0.00 0.00 0.00 45 1017.7
20260510100617 59 63 0.0 6.0 0.00 0.00 0.00 44 1017.6
20260510100541 59 52 0.0 6.0 0.00 0.00 0.00 44 1017.6
20260510100435 59 30 0.0 6.0 0.00 0.00 0.00 44 1017.5
20260510100339 59 103 1.0 6.0 0.00 0.00 0.00 44 1017.5
20260510100233 59 63 2.0 6.0 0.00 0.00 0.00 43 1017.5
20260510100148 59 34 2.0 7.0 0.00 0.00 0.00 44 1017.5
20260510100039 58 63 0.0 7.0 0.00 0.00 0.00 44 1017.4
20260510100027 59 36 1.0 7.0 0.00 0.00 0.00 44 1017.4
20260510095914 59 53 0.0 7.0 0.00 0.00 0.00 44 1017.5
20260510095829 59 27 0.0 7.0 0.00 0.00 0.00 44 1017.5
20260510095733 59 25 0.0 7.0 0.00 0.00 0.00 43 1017.5
20260510095647 59 55 0.0 7.0 0.00 0.00 0.00 43 1017.5
20260510095550 59 41 2.0 7.0 0.00 0.00 0.00 43 1017.6
20260510095425 59 32 3.0 7.0 0.00 0.00 0.00 42 1017.6
20260510095328 59 56 1.0 7.0 0.00 0.00 0.00 42 1017.5
20260510095223 59 75 0.0 8.0 0.00 0.00 0.00 42 1017.5
20260510095122 59 55 0.0 8.0 0.00 0.00 0.00 42 1017.5
20260510095026 59 58 0.0 8.0 0.00 0.00 0.00 42 1017.5
20260510094941 59 79 0.0 9.0 0.00 0.00 0.00 42 1017.5
20260510094824 60 51 0.0 9.0 0.00 0.00 0.00 42 1017.5
20260510094719 60 47 0.0 9.0 0.00 0.00 0.00 42 1017.5
20260510094640 59 68 0.0 9.0 0.00 0.00 0.00 42 1017.5
20260510094614 60 56 1.0 9.0 0.00 0.00 0.00 42 1017.5
20260510094517 60 56 1.0 9.0 0.00 0.00 0.00 41 1017.5
20260510094416 60 66 1.0 9.0 0.00 0.00 0.00 42 1017.5
20260510094341 60 329 2.0 9.0 0.00 0.00 0.00 42 1017.5
20260510094214 60 34 2.0 9.0 0.00 0.00 0.00 42 1017.5
20260510094138 60 60 1.0 9.0 0.00 0.00 0.00 42 1017.5
20260510094033 60 61 2.0 8.0 0.00 0.00 0.00 42 1017.5
20260510093928 60 6 2.0 8.0 0.00 0.00 0.00 42 1017.6
20260510093832 60 81 2.0 8.0 0.00 0.00 0.00 42 1017.5
20260510093747 60 33 3.0 8.0 0.00 0.00 0.00 42 1017.5
20260510093711 60 23 2.0 7.0 0.00 0.00 0.00 41 1017.5
20260510093525 60 37 0.0 7.0 0.00 0.00 0.00 42 1017.4
20260510093429 60 59 1.0 10.0 0.00 0.00 0.00 42 1017.3
20260510093324 60 53 2.0 10.0 0.00 0.00 0.00 42 1017.3
20260510093219 60 129 2.0 10.0 0.00 0.00 0.00 43 1017.2
20260510093123 60 20 2.0 10.0 0.00 0.00 0.00 43 1017.2
20260510093101 59 52 2.0 10.0 0.00 0.00 0.00 43 1017.2
20260510093020 60 340 3.0 10.0 0.00 0.00 0.00 42 1017.2
20260510092917 60 42 3.0 10.0 0.00 0.00 0.00 43 1017.1
20260510092840 60 65 3.0 10.0 0.00 0.00 0.00 42 1017.1
20260510092803 60 42 3.0 10.0 0.00 0.00 0.00 43 1017.1
20260510092617 60 67 0.0 8.0 0.00 0.00 0.00 43 1017.1
20260510092532 60 109 0.0 7.0 0.00 0.00 0.00 43 1017.1
20260510092436 60 36 0.0 8.0 0.00 0.00 0.00 43 1017.1
20260510092331 60 84 0.0 8.0 0.00 0.00 0.00 43 1017.1
20260510092226 60 35 0.0 8.0 0.00 0.00 0.00 43 1017.1
20260510092134 60 8 0.0 8.0 0.00 0.00 0.00 43 1017.2
20260510092029 60 38 1.0 8.0 0.00 0.00 0.00 43 1017.1
20260510091953 60 44 2.0 9.0 0.00 0.00 0.00 43 1017.1
20260510091827 60 7 3.0 9.0 0.00 0.00 0.00 43 1017.1
20260510091722 60 58 4.0 9.0 0.00 0.00 0.00 44 1017.1
20260510091625 60 55 3.0 9.0 0.00 0.00 0.00 43 1017.1
20260510091606 60 77 2.0 12.0 0.00 0.00 0.00 44 1017.1
20260510091519 60 67 2.0 12.0 0.00 0.00 0.00 44 1017.1
20260510091418 60 48 3.0 12.0 0.00 0.00 0.00 44 1017.0
20260510091322 60 66 2.0 12.0 0.00 0.00 0.00 44 1017.0
20260510091217 60 56 3.0 12.0 0.00 0.00 0.00 44 1017.0
20260510091141 60 20 3.0 12.0 0.00 0.00 0.00 44 1017.0
20260510091016 60 65 4.0 12.0 0.00 0.00 0.00 45 1017.0
20260510090929 60 325 3.0 12.0 0.00 0.00 0.00 45 1017.0
20260510090835 60 76 4.0 12.0 0.00 0.00 0.00 45 1016.9
20260510090753 61 63 4.0 12.0 0.00 0.00 0.00 45 1016.9
20260510090635 61 48 5.0 11.0 0.00 0.00 0.00 44 1016.8
20260510090531 61 37 5.0 11.0 0.00 0.00 0.00 44 1016.8
20260510090426 61 52 2.0 11.0 0.00 0.00 0.00 45 1016.9
20260510090331 61 55 1.0 11.0 0.00 0.00 0.00 45 1016.9
20260510090225 61 35 1.0 13.0 0.00 0.00 0.00 45 1016.9
20260510090149 60 20 2.0 13.0 0.00 0.00 0.00 45 1016.9
20260510090131 61 36 3.0 16.0 0.00 0.00 0.00 45 1016.9
20260510090043 61 70 5.0 16.0 0.00 0.00 0.00 45 1016.9
20260510085913 61 34 4.0 16.0 0.00 0.00 0.00 45 1016.9
20260510085837 61 75 4.0 16.0 0.00 0.00 0.00 45 1016.9
20260510085802 61 72 6.0 16.0 0.00 0.00 0.00 45 1016.9
20260510085616 61 63 5.0 16.0 0.00 0.00 0.00 45 1016.8
20260510085531 61 354 6.0 16.0 0.00 0.00 0.00 45 1016.8
20260510085435 61 32 7.0 16.0 0.00 0.00 0.00 45 1016.8
20260510085314 61 59 6.0 16.0 0.00 0.00 0.00 46 1016.8
20260510085228 61 39 4.0 15.0 0.00 0.00 0.00 46 1016.8
20260510085132 61 68 4.0 15.0 0.00 0.00 0.00 47 1016.8
20260510085027 61 63 4.0 15.0 0.00 0.00 0.00 48 1016.8
20260510084921 61 59 5.0 15.0 0.00 0.00 0.00 48 1016.7
20260510084825 61 12 6.0 15.0 0.00 0.00 0.00 48 1016.7
20260510084720 61 80 4.0 11.0 0.00 0.00 0.00 49 1016.8
20260510084638 61 22 3.0 11.0 0.00 0.00 0.00 49 1016.8
20260510084618 61 29 2.0 10.0 0.00 0.00 0.00 50 1016.8
20260510084542 61 68 3.0 11.0 0.00 0.00 0.00 50 1016.8
20260510084416 61 86 4.0 11.0 0.00 0.00 0.00 50 1016.8
20260510084321 61 37 4.0 11.0 0.00 0.00 0.00 50 1016.8
20260510084236 61 31 3.0 11.0 0.00 0.00 0.00 51 1016.9
20260510084138 61 38 3.0 11.0 0.00 0.00 0.00 51 1016.8
20260510084042 61 58 2.0 11.0 0.00 0.00 0.00 52 1016.8
20260510083915 61 68 2.0 11.0 0.00 0.00 0.00 52 1016.8
20260510083839 61 55 3.0 11.0 0.00 0.00 0.00 53 1016.8
20260510083719 61 54 2.0 9.0 0.00 0.00 0.00 53 1016.7
20260510083613 61 63 3.0 9.0 0.00 0.00 0.00 54 1016.7
20260510083538 61 62 4.0 9.0 0.00 0.00 0.00 53 1016.7
20260510083433 61 43 3.0 9.0 0.00 0.00 0.00 54 1016.8
20260510083327 61 33 2.0 9.0 0.00 0.00 0.00 54 1016.8
20260510083251 61 43 1.0 9.0 0.00 0.00 0.00 54 1016.8
20260510083153 61 70 1.0 9.0 0.00 0.00 0.00 54 1016.8
20260510083108 61 64 0.0 9.0 0.00 0.00 0.00 54 1016.8
20260510083026 61 1 1.0 8.0 0.00 0.00 0.00 55 1016.8
20260510082926 61 35 2.0 8.0 0.00 0.00 0.00 54 1016.8
20260510082828 61 65 2.0 8.0 0.00 0.00 0.00 55 1016.7
20260510082723 61 51 2.0 9.0 0.00 0.00 0.00 55 1016.8
20260510082617 61 352 2.0 9.0 0.00 0.00 0.00 55 1016.7
20260510082521 61 24 3.0 9.0 0.00 0.00 0.00 55 1016.6
20260510082416 61 36 2.0 9.0 0.00 0.00 0.00 55 1016.5
20260510082315 61 55 0.0 9.0 0.00 0.00 0.00 55 1016.5
20260510082219 61 61 2.0 10.0 0.00 0.00 0.00 55 1016.5
20260510082113 61 72 4.0 10.0 0.00 0.00 0.00 56 1016.5
20260510082037 61 56 4.0 10.0 0.00 0.00 0.00 56 1016.5
20260510081932 61 72 2.0 13.0 0.00 0.00 0.00 56 1016.4
20260510081828 61 354 1.0 13.0 0.00 0.00 0.00 57 1016.4
20260510081731 61 63 3.0 13.0 0.00 0.00 0.00 57 1016.4
20260510081630 61 80 2.0 13.0 0.00 0.00 0.00 56 1016.3
20260510081551 61 19 1.0 13.0 0.00 0.00 0.00 56 1016.3
20260510081526 61 34 1.0 13.0 0.00 0.00 0.00 57 1016.3
20260510081429 61 13 2.0 13.0 0.00 0.00 0.00 57 1016.3
20260510081323 61 49 3.0 13.0 0.00 0.00 0.00 57 1016.2
20260510081226 61 23 3.0 13.0 0.00 0.00 0.00 57 1016.3
20260510081121 61 30 3.0 13.0 0.00 0.00 0.00 57 1016.2
20260510081044 61 38 0.0 7.0 0.00 0.00 0.00 58 1016.2
20260510080918 61 41 0.0 7.0 0.00 0.00 0.00 58 1016.1
20260510080817 61 69 0.0 7.0 0.00 0.00 0.00 58 1016.1
20260510080721 62 36 0.0 7.0 0.00 0.00 0.00 58 1016.1
20260510080616 62 46 1.0 7.0 0.00 0.00 0.00 58 1016.1
20260510080540 62 30 1.0 7.0 0.00 0.00 0.00 58 1016.1
20260510080435 62 34 1.0 7.0 0.00 0.00 0.00 58 1016.0
20260510080330 62 51 2.0 7.0 0.00 0.00 0.00 58 1016.0
20260510080225 62 46 2.0 7.0 0.00 0.00 0.00 58 1016.1
20260510080144 62 63 2.0 7.0 0.00 0.00 0.00 58 1016.1
20260510080041 61 39 0.0 0.0 0.00 0.00 0.00 59 1016.2
20260510080024 62 44 0.0 0.0 0.00 0.00 0.00 59 1016.2
20260510075943 62 49 0.0 0.0 0.00 0.00 0.00 59 1016.3
20260510075816 62 68 0.0 0.0 0.00 0.00 0.00 59 1016.2
20260510075720 62 65 0.0 0.0 0.00 0.00 0.00 60 1016.3
20260510075615 62 56 0.0 0.0 0.00 0.00 0.00 59 1016.3
20260510075539 62 50 0.0 0.0 0.00 0.00 0.00 59 1016.3
20260510075418 62 32 0.0 0.0 0.00 0.00 0.00 59 1016.2
20260510075333 62 65 0.0 0.0 0.00 0.00 0.00 59 1016.2
20260510075215 62 59 0.0 0.0 0.00 0.00 0.00 59 1016.2
20260510075130 62 18 0.0 0.0 0.00 0.00 0.00 59 1016.2
20260510075054 62 63 0.0 0.0 0.00 0.00 0.00 59 1016.2
20260510074928 62 44 0.0 0.0 0.00 0.00 0.00 59 1016.1
20260510074831 62 346 0.0 0.0 0.00 0.00 0.00 59 1016.1
20260510074726 62 18 0.0 0.0 0.00 0.00 0.00 60 1016.1
20260510074654 62 44 0.0 3.0 0.00 0.00 0.00 60 1016.1
20260510074605 61 52 0.0 3.0 0.00 0.00 0.00 60 1016.0
20260510074528 62 45 0.0 3.0 0.00 0.00 0.00 60 1016.0
20260510074451 62 73 0.0 5.0 0.00 0.00 0.00 60 1016.0
20260510074325 62 44 0.0 5.0 0.00 0.00 0.00 60 1015.9
20260510074220 62 36 0.0 5.0 0.00 0.00 0.00 60 1015.9
20260510074123 62 15 0.0 5.0 0.00 0.00 0.00 60 1015.9
20260510074018 62 41 0.0 5.0 0.00 0.00 0.00 60 1015.9
20260510073917 62 37 0.0 8.0 0.00 0.00 0.00 60 1015.9
20260510073821 62 37 0.0 9.0 0.00 0.00 0.00 61 1015.9
20260510073716 62 39 1.0 9.0 0.00 0.00 0.00 60 1015.8
20260510073640 62 63 2.0 9.0 0.00 0.00 0.00 60 1015.8
20260510073515 62 58 1.0 9.0 0.00 0.00 0.00 60 1015.8
20260510073430 62 65 0.0 9.0 0.00 0.00 0.00 60 1015.8
20260510073334 62 340 0.0 9.0 0.00 0.00 0.00 61 1015.8
20260510073233 62 41 1.0 9.0 0.00 0.00 0.00 61 1015.8
20260510073127 62 40 2.0 9.0 0.00 0.00 0.00 61 1015.7
20260510073031 62 42 1.0 9.0 0.00 0.00 0.00 60 1015.7
20260510073010 61 35 0.0 4.0 0.00 0.00 0.00 61 1015.7
20260510072928 62 11 0.0 4.0 0.00 0.00 0.00 62 1015.7
20260510072821 62 23 0.0 4.0 0.00 0.00 0.00 62 1015.7
20260510072725 62 46 1.0 4.0 0.00 0.00 0.00 62 1015.7
20260510072620 62 39 1.0 4.0 0.00 0.00 0.00 62 1015.7
20260510072519 62 39 0.0 0.0 0.00 0.00 0.00 62 1015.7
20260510072423 62 39 0.0 0.0 0.00 0.00 0.00 62 1015.7
20260510072318 62 32 0.0 0.0 0.00 0.00 0.00 62 1015.6
20260510072242 62 20 0.0 0.0 0.00 0.00 0.00 62 1015.6
20260510072117 62 16 0.0 0.0 0.00 0.00 0.00 62 1015.7
20260510072032 62 20 0.0 0.0 0.00 0.00 0.00 62 1015.7
20260510071936 62 21 0.0 0.0 0.00 0.00 0.00 62 1015.7
20260510071815 62 26 0.0 0.0 0.00 0.00 0.00 62 1015.7
20260510071730 62 25 0.0 0.0 0.00 0.00 0.00 62 1015.7
20260510071633 62 24 0.0 0.0 0.00 0.00 0.00 62 1015.6
20260510071614 61 24 0.0 0.0 0.00 0.00 0.00 62 1015.6
20260510071548 62 24 0.0 0.0 0.00 0.00 0.00 62 1015.6
20260510071430 62 24 0.0 0.0 0.00 0.00 0.00 61 1015.6
20260510071325 62 24 0.0 0.0 0.00 0.00 0.00 61 1015.6
20260510071228 62 48 0.0 0.0 0.00 0.00 0.00 61 1015.5
20260510071127 62 48 0.0 0.0 0.00 0.00 0.00 61 1015.5
20260510071022 62 48 0.0 0.0 0.00 0.00 0.00 62 1015.5
20260510070926 62 48 0.0 0.0 0.00 0.00 0.00 62 1015.4
20260510070821 61 48 0.0 0.0 0.00 0.00 0.00 62 1015.4
20260510070744 61 48 0.0 0.0 0.00 0.00 0.00 62 1015.4
20260510070618 61 48 0.0 0.0 0.00 0.00 0.00 63 1015.4
20260510070542 61 68 0.0 0.0 0.00 0.00 0.00 63 1015.4
20260510070421 61 68 0.0 0.0 0.00 0.00 0.00 62 1015.4
20260510070316 61 68 0.0 0.0 0.00 0.00 0.00 62 1015.4
20260510070239 61 68 0.0 0.0 0.00 0.00 0.00 62 1015.4
20260510070205 61 68 0.0 0.0 0.00 0.00 0.00 63 1015.4
20260510070032 61 68 0.0 0.0 0.00 0.00 0.00 63 1015.4
20260510065929 61 82 0.0 0.0 0.00 0.00 0.00 63 1015.3
20260510065822 61 82 0.0 0.0 0.00 0.00 0.00 62 1015.3
20260510065726 62 82 0.0 0.0 0.00 0.00 0.00 62 1015.3
20260510065626 62 82 0.0 0.0 0.00 0.00 0.00 62 1015.2
20260510065520 62 82 0.0 0.0 0.00 0.00 0.00 62 1015.2
20260510065425 62 82 0.0 0.0 0.00 0.00 0.00 62 1015.2
20260510065319 62 82 0.0 0.0 0.00 0.00 0.00 62 1015.2
20260510065243 62 82 0.0 0.0 0.00 0.00 0.00 61 1015.2
20260510065116 62 82 0.0 0.0 0.00 0.00 0.00 59 1015.3
20260510065040 62 82 0.0 0.0 0.00 0.00 0.00 60 1015.3
20260510064940 62 82 0.0 0.0 0.00 0.00 0.00 59 1015.2
20260510064843 63 82 0.0 0.0 0.00 0.00 0.00 59 1015.2
20260510064716 63 82 0.0 0.0 0.00 0.00 0.00 59 1015.1
20260510064640 63 82 0.0 0.0 0.00 0.00 0.00 58 1015.1
20260510064604 62 82 0.0 0.0 0.00 0.00 0.00 58 1015.2
20260510064515 63 82 0.0 0.0 0.00 0.00 0.00 58 1015.1
20260510064430 63 82 0.0 0.0 0.00 0.00 0.00 58 1015.1
20260510064334 63 82 0.0 0.0 0.00 0.00 0.00 58 1015.1
20260510064249 63 82 0.0 0.0 0.00 0.00 0.00 57 1015.2
20260510064136 63 82 0.0 0.0 0.00 0.00 0.00 57 1015.1
20260510064102 63 82 0.0 0.0 0.00 0.00 0.00 57 1015.1
20260510063934 63 82 0.0 0.0 0.00 0.00 0.00 56 1015.1
20260510063830 63 82 0.0 0.0 0.00 0.00 0.00 56 1015.1
20260510063753 63 82 0.0 0.0 0.00 0.00 0.00 57 1015.1
20260510063628 64 82 0.0 0.0 0.00 0.00 0.00 56 1015.1
20260510063523 64 82 0.0 0.0 0.00 0.00 0.00 57 1015.1
20260510063427 64 82 0.0 0.0 0.00 0.00 0.00 56 1015.1
20260510063326 64 82 0.0 0.0 0.00 0.00 0.00 56 1015.1
20260510063221 64 82 0.0 0.0 0.00 0.00 0.00 56 1015.0
20260510063145 64 82 0.0 0.0 0.00 0.00 0.00 56 1015.0
20260510063028 64 82 0.0 0.0 0.00 0.00 0.00 55 1015.0
20260510063009 63 82 0.0 0.0 0.00 0.00 0.00 55 1014.9
20260510062923 64 82 0.0 0.0 0.00 0.00 0.00 55 1014.9
20260510062816 64 82 0.0 0.0 0.00 0.00 0.00 55 1014.9
20260510062740 64 82 0.0 0.0 0.00 0.00 0.00 55 1014.9
20260510062620 64 91 0.0 0.0 0.00 0.00 0.00 55 1014.8
20260510062514 64 106 0.0 0.0 0.00 0.00 0.00 55 1014.8
20260510062438 64 105 0.0 0.0 0.00 0.00 0.00 55 1014.8
20260510062313 64 90 0.0 0.0 0.00 0.00 0.00 55 1014.8
20260510062228 64 96 0.0 0.0 0.00 0.00 0.00 54 1014.8
20260510062152 65 96 0.0 0.0 0.00 0.00 0.00 54 1014.9
20260510062027 65 96 0.0 0.0 0.00 0.00 0.00 54 1014.9
20260510061934 65 96 0.0 0.0 0.00 0.00 0.00 54 1014.9
20260510061829 65 96 0.0 0.0 0.00 0.00 0.00 54 1015.0
20260510061724 65 96 0.0 0.0 0.00 0.00 0.00 53 1015.0
20260510061648 65 96 0.0 0.0 0.00 0.00 0.00 53 1015.0
20260510061551 65 96 0.0 0.0 0.00 0.00 0.00 53 1015.0
20260510061425 65 96 0.0 0.0 0.00 0.00 0.00 53 1015.1
20260510061321 65 96 0.0 0.0 0.00 0.00 0.00 53 1015.1
20260510061224 65 96 0.0 0.0 0.00 0.00 0.00 53 1015.1
20260510061124 65 96 0.0 0.0 0.00 0.00 0.00 53 1015.1
20260510061028 65 96 0.0 0.0 0.00 0.00 0.00 53 1015.2
20260510060921 65 96 0.0 0.0 0.00 0.00 0.00 53 1015.2
20260510060825 65 96 0.0 0.0 0.00 0.00 0.00 53 1015.2
20260510060738 65 96 0.0 0.0 0.00 0.00 0.00 53 1015.2
20260510060702 65 96 0.0 0.0 0.00 0.00 0.00 53 1015.2
20260510060516 65 96 0.0 0.0 0.00 0.00 0.00 53 1015.2
20260510060415 65 96 0.0 0.0 0.00 0.00 0.00 53 1015.2
20260510060339 65 96 0.0 0.0 0.00 0.00 0.00 52 1015.2
20260510060214 65 61 0.0 0.0 0.00 0.00 0.00 52 1015.2
20260510060150 65 60 0.0 0.0 0.00 0.00 0.00 52 1015.2
20260510060106 65 60 0.0 0.0 0.00 0.00 0.00 51 1015.2
20260510060048 65 60 0.0 0.0 0.00 0.00 0.00 51 1015.2
20260510055932 66 60 0.0 0.0 0.00 0.00 0.00 51 1015.2
20260510055827 66 69 0.0 0.0 0.00 0.00 0.00 51 1015.2
20260510055721 66 65 0.0 0.0 0.00 0.00 0.00 51 1015.1
20260510055629 66 65 0.0 0.0 0.00 0.00 0.00 51 1015.1
20260510055524 66 63 0.0 0.0 0.00 0.00 0.00 51 1015.1
20260510055419 66 60 0.0 0.0 0.00 0.00 0.00 51 1015.1
20260510055324 66 68 0.0 0.0 0.00 0.00 0.00 51 1015.1
20260510055218 66 79 0.0 0.0 0.00 0.00 0.00 51 1015.2
20260510055113 66 50 0.0 0.0 0.00 0.00 0.00 51 1015.2
20260510055021 66 50 0.0 0.0 0.00 0.00 0.00 51 1015.1
20260510054916 66 48 0.0 2.0 0.00 0.00 0.00 50 1015.1
20260510054840 66 48 0.0 2.0 0.00 0.00 0.00 50 1015.1
20260510054715 66 326 0.0 5.0 0.00 0.00 0.00 50 1015.0
20260510054652 66 73 0.0 5.0 0.00 0.00 0.00 50 1015.0
20260510054630 66 73 0.0 5.0 0.00 0.00 0.00 50 1015.0
20260510054534 66 15 0.0 5.0 0.00 0.00 0.00 50 1015.0
20260510054428 66 15 0.0 5.0 0.00 0.00 0.00 50 1015.0
20260510054332 66 43 0.0 5.0 0.00 0.00 0.00 50 1014.9
20260510054231 66 68 0.0 5.0 0.00 0.00 0.00 49 1014.9
20260510054127 66 65 1.0 5.0 0.00 0.00 0.00 50 1014.9
20260510054030 66 52 2.0 5.0 0.00 0.00 0.00 50 1014.9
20260510053926 66 59 1.0 5.0 0.00 0.00 0.00 50 1014.9
20260510053821 66 18 0.0 0.0 0.00 0.00 0.00 50 1014.8
20260510053724 66 122 0.0 0.0 0.00 0.00 0.00 50 1014.8
20260510053617 66 122 0.0 0.0 0.00 0.00 0.00 50 1014.7
20260510053525 66 122 0.0 0.0 0.00 0.00 0.00 50 1014.7
20260510053420 66 122 0.0 0.0 0.00 0.00 0.00 50 1014.7
20260510053315 66 147 0.0 0.0 0.00 0.00 0.00 49 1014.7
20260510053219 67 66 0.0 0.0 0.00 0.00 0.00 50 1014.7
20260510053133 67 94 0.0 3.0 0.00 0.00 0.00 50 1014.7
20260510053037 67 94 0.0 3.0 0.00 0.00 0.00 50 1014.7
20260510053014 66 94 0.0 3.0 0.00 0.00 0.00 50 1014.8
20260510052914 67 94 0.0 3.0 0.00 0.00 0.00 49 1014.7
20260510052828 67 94 0.0 3.0 0.00 0.00 0.00 50 1014.7
20260510052731 67 76 0.0 3.0 0.00 0.00 0.00 49 1014.7
20260510052633 67 68 0.0 3.0 0.00 0.00 0.00 48 1014.7
20260510052528 67 61 0.0 3.0 0.00 0.00 0.00 48 1014.7
20260510052423 67 60 0.0 3.0 0.00 0.00 0.00 48 1014.7
20260510052327 67 49 0.0 3.0 0.00 0.00 0.00 48 1014.7
20260510052242 67 55 0.0 0.0 0.00 0.00 0.00 48 1014.7
20260510052124 67 60 0.0 0.0 0.00 0.00 0.00 48 1014.7
20260510052023 67 75 0.0 3.0 0.00 0.00 0.00 48 1014.7
20260510051926 67 75 0.0 3.0 0.00 0.00 0.00 47 1014.6
20260510051821 67 75 0.0 3.0 0.00 0.00 0.00 47 1014.7
20260510051716 67 148 0.0 3.0 0.00 0.00 0.00 48 1014.7
20260510051620 67 97 0.0 3.0 0.00 0.00 0.00 47 1014.8
20260510051558 67 97 0.0 3.0 0.00 0.00 0.00 47 1014.8
20260510051514 67 97 0.0 4.0 0.00 0.00 0.00 47 1014.9
20260510051438 67 97 0.0 4.0 0.00 0.00 0.00 47 1014.9
20260510051337 67 103 0.0 4.0 0.00 0.00 0.00 46 1014.9
20260510051301 67 68 0.0 6.0 0.00 0.00 0.00 47 1014.8
20260510051115 67 109 0.0 6.0 0.00 0.00 0.00 47 1014.7
20260510051031 67 48 0.0 6.0 0.00 0.00 0.00 46 1014.7
20260510050934 68 87 0.0 6.0 0.00 0.00 0.00 46 1014.6
20260510050829 68 108 0.0 12.0 0.00 0.00 0.00 46 1014.5
20260510050753 68 108 1.0 12.0 0.00 0.00 0.00 46 1014.4
20260510050627 68 57 2.0 12.0 0.00 0.00 0.00 46 1014.3
20260510050526 68 99 2.0 12.0 0.00 0.00 0.00 47 1014.2
20260510050449 68 52 2.0 12.0 0.00 0.00 0.00 46 1014.1
20260510050323 68 38 1.0 12.0 0.00 0.00 0.00 46 1014.0
20260510050247 68 37 2.0 12.0 0.00 0.00 0.00 46 1014.0
20260510050201 68 73 4.0 12.0 0.00 0.00 0.00 46 1013.9
20260510050109 68 129 5.0 12.0 0.00 0.00 0.00 46 1013.8
20260510050029 67 62 3.0 12.0 0.00 0.00 0.00 46 1013.8
20260510045937 68 39 1.0 8.0 0.00 0.00 0.00 46 1013.8
20260510045831 68 60 0.0 7.0 0.00 0.00 0.00 46 1013.7
20260510045739 68 65 2.0 7.0 0.00 0.00 0.00 46 1013.6
20260510045634 68 65 4.0 7.0 0.00 0.00 0.00 45 1013.5
20260510045529 68 53 4.0 7.0 0.00 0.00 0.00 45 1013.5
20260510045423 68 64 3.0 7.0 0.00 0.00 0.00 45 1013.5
20260510045347 68 50 0.0 7.0 0.00 0.00 0.00 46 1013.5
20260510045219 68 34 0.0 7.0 0.00 0.00 0.00 45 1013.5
20260510045123 68 43 0.0 12.0 0.00 0.00 0.00 45 1013.5
20260510045022 68 44 0.0 12.0 0.00 0.00 0.00 46 1013.5
20260510044947 68 61 1.0 12.0 0.00 0.00 0.00 45 1013.5
20260510044850 68 37 2.0 12.0 0.00 0.00 0.00 45 1013.5
20260510044723 68 59 2.0 12.0 0.00 0.00 0.00 45 1013.5
20260510044618 68 45 4.0 14.0 0.00 0.00 0.00 45 1013.5
20260510044542 68 359 4.0 14.0 0.00 0.00 0.00 45 1013.5
20260510044508 68 40 5.0 14.0 0.00 0.00 0.00 44 1013.4
20260510044434 68 56 4.0 14.0 0.00 0.00 0.00 44 1013.3
20260510044337 68 56 4.0 14.0 0.00 0.00 0.00 45 1013.3
20260510044216 68 68 4.0 14.0 0.00 0.00 0.00 44 1013.3
20260510044130 68 101 4.0 14.0 0.00 0.00 0.00 45 1013.3
20260510044034 68 84 5.0 14.0 0.00 0.00 0.00 44 1013.3
20260510043929 68 58 6.0 14.0 0.00 0.00 0.00 44 1013.2
20260510043824 68 60 5.0 14.0 0.00 0.00 0.00 45 1013.3
20260510043728 68 37 3.0 8.0 0.00 0.00 0.00 45 1013.2
20260510043643 68 86 3.0 9.0 0.00 0.00 0.00 45 1013.2
20260510043526 68 55 3.0 10.0 0.00 0.00 0.00 45 1013.2
20260510043414 68 58 2.0 18.0 0.00 0.00 0.00 45 1013.1
20260510043329 68 355 2.0 18.0 0.00 0.00 0.00 46 1013.1
20260510043253 68 90 2.0 18.0 0.00 0.00 0.00 45 1013.1
20260510043137 68 64 4.0 18.0 0.00 0.00 0.00 45 1013.1
20260510043118 68 39 4.0 18.0 0.00 0.00 0.00 45 1013.0
20260510043031 68 39 5.0 18.0 0.00 0.00 0.00 45 1013.0
20260510042928 68 46 5.0 18.0 0.00 0.00 0.00 45 1013.0
20260510042831 68 4 6.0 18.0 0.00 0.00 0.00 45 1012.9
20260510042729 68 31 6.0 18.0 0.00 0.00 0.00 45 1012.9
20260510042653 69 60 6.0 18.0 0.00 0.00 0.00 46 1012.9
20260510042527 69 38 4.0 15.0 0.00 0.00 0.00 46 1012.9
20260510042422 69 17 4.0 15.0 0.00 0.00 0.00 47 1012.8
20260510042326 69 43 7.0 16.0 0.00 0.00 0.00 47 1012.8
20260510042220 69 51 5.0 16.0 0.00 0.00 0.00 49 1012.8
20260510042145 69 69 3.0 16.0 0.00 0.00 0.00 49 1012.8
20260510042039 69 45 3.0 16.0 0.00 0.00 0.00 50 1012.7
20260510041926 69 65 2.0 16.0 0.00 0.00 0.00 50 1012.7
20260510041841 69 85 2.0 16.0 0.00 0.00 0.00 52 1012.7
20260510041724 69 77 7.0 16.0 0.00 0.00 0.00 52 1012.7
20260510041618 69 56 6.0 16.0 0.00 0.00 0.00 51 1012.7
20260510041537 68 57 4.0 16.0 0.00 0.00 0.00 53 1012.7
20260510041514 69 74 2.0 14.0 0.00 0.00 0.00 53 1012.6
20260510041418 69 74 3.0 10.0 0.00 0.00 0.00 53 1012.7
20260510041333 69 46 4.0 10.0 0.00 0.00 0.00 53 1012.7
20260510041241 69 63 4.0 10.0 0.00 0.00 0.00 54 1012.7
20260510041115 69 43 4.0 10.0 0.00 0.00 0.00 53 1012.6
20260510041030 69 53 3.0 10.0 0.00 0.00 0.00 53 1012.6
20260510040934 69 53 2.0 10.0 0.00 0.00 0.00 53 1012.6
20260510040830 69 44 4.0 12.0 0.00 0.00 0.00 53 1012.6
20260510040725 69 59 2.0 12.0 0.00 0.00 0.00 53 1012.6
20260510040629 69 60 0.0 12.0 0.00 0.00 0.00 54 1012.6
20260510040528 69 100 0.0 12.0 0.00 0.00 0.00 54 1012.6
20260510040452 69 65 0.0 12.0 0.00 0.00 0.00 54 1012.7
20260510040326 69 58 0.0 12.0 0.00 0.00 0.00 54 1012.7
20260510040221 68 347 2.0 12.0 0.00 0.00 0.00 53 1012.6
20260510040136 68 45 2.0 12.0 0.00 0.00 0.00 54 1012.6
20260510040050 68 66 0.0 12.0 0.00 0.00 0.00 55 1012.6
20260510040015 68 77 0.0 6.0 0.00 0.00 0.00 55 1012.6
20260510035938 68 46 0.0 6.0 0.00 0.00 0.00 55 1012.5
20260510035815 68 51 0.0 6.0 0.00 0.00 0.00 56 1012.5
20260510035739 68 58 0.0 6.0 0.00 0.00 0.00 56 1012.5
20260510035614 68 55 0.0 6.0 0.00 0.00 0.00 55 1012.5
20260510035540 68 69 0.0 6.0 0.00 0.00 0.00 56 1012.5
20260510035433 68 6 1.0 6.0 0.00 0.00 0.00 56 1012.5
20260510035358 68 51 1.0 6.0 0.00 0.00 0.00 55 1012.5
20260510035231 68 48 0.0 6.0 0.00 0.00 0.00 57 1012.5
20260510035126 69 44 0.0 6.0 0.00 0.00 0.00 57 1012.5
20260510035034 69 46 0.0 6.0 0.00 0.00 0.00 56 1012.5
20260510034928 69 61 1.0 6.0 0.00 0.00 0.00 56 1012.4
20260510034823 69 41 1.0 6.0 0.00 0.00 0.00 56 1012.4
20260510034718 69 79 0.0 2.0 0.00 0.00 0.00 55 1012.3
20260510034621 69 57 0.0 2.0 0.00 0.00 0.00 55 1012.3
20260510034548 68 63 0.0 2.0 0.00 0.00 0.00 55 1012.3
20260510034517 69 79 0.0 2.0 0.00 0.00 0.00 55 1012.3
20260510034415 69 52 0.0 2.0 0.00 0.00 0.00 55 1012.3
20260510034320 69 39 0.0 2.0 0.00 0.00 0.00 55 1012.3
20260510034214 69 20 0.0 2.0 0.00 0.00 0.00 55 1012.4
20260510034138 69 61 0.0 2.0 0.00 0.00 0.00 55 1012.4
20260510034013 69 35 0.0 2.0 0.00 0.00 0.00 55 1012.5
20260510033928 69 51 0.0 1.0 0.00 0.00 0.00 56 1012.5
20260510033830 69 59 0.0 0.0 0.00 0.00 0.00 54 1012.5
20260510033725 69 46 0.0 0.0 0.00 0.00 0.00 55 1012.5
20260510033653 69 51 0.0 0.0 0.00 0.00 0.00 54 1012.5
20260510033556 69 30 0.0 0.0 0.00 0.00 0.00 54 1012.5
20260510033430 68 39 0.0 0.0 0.00 0.00 0.00 55 1012.5
20260510033325 68 58 0.0 0.0 0.00 0.00 0.00 55 1012.5
20260510033250 68 43 0.0 3.0 0.00 0.00 0.00 55 1012.5
20260510033137 68 43 0.0 4.0 0.00 0.00 0.00 55 1012.5
20260510033124 68 46 0.0 4.0 0.00 0.00 0.00 55 1012.5
20260510033028 68 36 0.0 8.0 0.00 0.00 0.00 55 1012.5
20260510032925 68 62 0.0 8.0 0.00 0.00 0.00 55 1012.4
20260510032822 68 43 0.0 8.0 0.00 0.00 0.00 55 1012.4
20260510032727 68 87 0.0 8.0 0.00 0.00 0.00 55 1012.4
20260510032621 68 60 0.0 8.0 0.00 0.00 0.00 55 1012.3
20260510032545 68 65 0.0 8.0 0.00 0.00 0.00 55 1012.3
20260510032419 68 67 1.0 8.0 0.00 0.00 0.00 54 1012.2
20260510032314 68 41 3.0 8.0 0.00 0.00 0.00 55 1012.2
20260510032218 68 63 4.0 8.0 0.00 0.00 0.00 55 1012.2
20260510032146 68 64 2.0 8.0 0.00 0.00 0.00 55 1012.2
20260510032020 68 68 0.0 0.0 0.00 0.00 0.00 55 1012.3
20260510031915 68 70 0.0 0.0 0.00 0.00 0.00 56 1012.3
20260510031839 68 65 0.0 0.0 0.00 0.00 0.00 56 1012.3
20260510031714 68 52 0.0 0.0 0.00 0.00 0.00 55 1012.4
20260510031630 68 49 0.0 0.0 0.00 0.00 0.00 56 1012.4
20260510031533 68 340 0.0 0.0 0.00 0.00 0.00 55 1012.4
20260510031505 68 339 0.0 0.0 0.00 0.00 0.00 55 1012.4
20260510031447 68 339 0.0 0.0 0.00 0.00 0.00 55 1012.4
20260510031334 68 338 0.0 0.0 0.00 0.00 0.00 53 1012.4
20260510031229 68 338 0.0 0.0 0.00 0.00 0.00 53 1012.5
20260510031153 68 338 0.0 0.0 0.00 0.00 0.00 55 1012.5
20260510031027 68 338 0.0 0.0 0.00 0.00 0.00 54 1012.5
20260510030921 69 338 0.0 0.0 0.00 0.00 0.00 55 1012.5
20260510030825 69 338 0.0 0.0 0.00 0.00 0.00 54 1012.5
20260510030720 69 340 0.0 0.0 0.00 0.00 0.00 55 1012.5
20260510030629 69 8 0.0 0.0 0.00 0.00 0.00 55 1012.5
20260510030523 69 8 0.0 0.0 0.00 0.00 0.00 53 1012.4
20260510030418 69 8 0.0 0.0 0.00 0.00 0.00 53 1012.4
20260510030313 69 8 0.0 0.0 0.00 0.00 0.00 53 1012.4
20260510030217 69 8 0.0 0.0 0.00 0.00 0.00 52 1012.4
20260510030152 69 8 0.0 0.0 0.00 0.00 0.00 52 1012.4
20260510030110 69 8 0.0 0.0 0.00 0.00 0.00 51 1012.4
20260510030014 69 8 0.0 0.0 0.00 0.00 0.00 51 1012.4
20260510025932 69 32 0.0 0.0 0.00 0.00 0.00 52 1012.4
20260510025833 69 32 0.0 0.0 0.00 0.00 0.00 52 1012.4
20260510025748 69 36 0.0 0.0 0.00 0.00 0.00 52 1012.4
20260510025631 70 37 0.0 0.0 0.00 0.00 0.00 52 1012.3
20260510025526 70 37 0.0 0.0 0.00 0.00 0.00 51 1012.3
20260510025421 70 37 0.0 0.0 0.00 0.00 0.00 51 1012.2
20260510025344 70 37 0.0 0.0 0.00 0.00 0.00 51 1012.2
20260510025247 70 37 0.0 0.0 0.00 0.00 0.00 50 1012.1
20260510025124 70 37 0.0 0.0 0.00 0.00 0.00 50 1012.1
20260510025048 70 37 0.0 0.0 0.00 0.00 0.00 51 1012.1
20260510024922 70 37 0.0 0.0 0.00 0.00 0.00 51 1012.0
20260510024817 70 38 0.0 0.0 0.00 0.00 0.00 50 1011.9
20260510024721 70 38 0.0 0.0 0.00 0.00 0.00 50 1011.9
20260510024616 70 38 0.0 0.0 0.00 0.00 0.00 50 1011.8
20260510024540 70 38 0.0 0.0 0.00 0.00 0.00 50 1011.8
20260510024516 69 38 0.0 0.0 0.00 0.00 0.00 50 1011.8
20260510024419 70 38 0.0 0.0 0.00 0.00 0.00 50 1011.8
20260510024314 70 38 0.0 0.0 0.00 0.00 0.00 50 1011.8
20260510024238 70 38 0.0 0.0 0.00 0.00 0.00 50 1011.8
20260510024113 70 38 0.0 0.0 0.00 0.00 0.00 50 1011.7
20260510024028 70 38 0.0 0.0 0.00 0.00 0.00 50 1011.7
20260510023932 70 38 0.0 0.0 0.00 0.00 0.00 50 1011.7
20260510023827 70 38 0.0 0.0 0.00 0.00 0.00 50 1011.7
20260510023726 70 38 0.0 0.0 0.00 0.00 0.00 50 1011.7
20260510023630 70 38 0.0 0.0 0.00 0.00 0.00 49 1011.7
20260510023524 70 38 0.0 0.0 0.00 0.00 0.00 49 1011.6
20260510023419 70 38 0.0 0.0 0.00 0.00 0.00 49 1011.5
20260510023322 70 38 0.0 0.0 0.00 0.00 0.00 49 1011.5
20260510023217 70 38 0.0 0.0 0.00 0.00 0.00 48 1011.4
20260510023142 70 38 0.0 0.0 0.00 0.00 0.00 48 1011.4
20260510023116 70 38 0.0 0.0 0.00 0.00 0.00 48 1011.4
20260510023021 70 38 0.0 0.0 0.00 0.00 0.00 48 1011.3
20260510022914 70 38 0.0 0.0 0.00 0.00 0.00 48 1011.3
20260510022839 71 38 0.0 0.0 0.00 0.00 0.00 48 1011.3
20260510022733 71 38 0.0 0.0 0.00 0.00 0.00 48 1011.3
20260510022636 71 38 0.0 0.0 0.00 0.00 0.00 48 1011.3
20260510022530 71 39 0.0 0.0 0.00 0.00 0.00 48 1011.3
20260510022426 71 38 0.0 0.0 0.00 0.00 0.00 47 1011.3
20260510022334 71 38 0.0 0.0 0.00 0.00 0.00 47 1011.3
20260510022229 71 38 0.0 0.0 0.00 0.00 0.00 47 1011.3
20260510022124 71 38 0.0 0.0 0.00 0.00 0.00 47 1011.2
20260510022048 71 38 0.0 0.0 0.00 0.00 0.00 47 1011.2
20260510021930 71 38 0.0 0.0 0.00 0.00 0.00 47 1011.2
20260510021825 71 39 0.0 0.0 0.00 0.00 0.00 47 1011.2
20260510021720 71 38 0.0 0.0 0.00 0.00 0.00 47 1011.1
20260510021622 71 38 0.0 0.0 0.00 0.00 0.00 46 1011.1
20260510021544 71 41 0.0 0.0 0.00 0.00 0.00 47 1011.1
20260510021521 71 41 0.0 0.0 0.00 0.00 0.00 47 1011.1
20260510021425 71 42 0.0 0.0 0.00 0.00 0.00 46 1011.1
20260510021320 71 347 0.0 0.0 0.00 0.00 0.00 46 1011.1
20260510021243 71 347 0.0 0.0 0.00 0.00 0.00 46 1011.0
20260510021116 71 358 0.0 0.0 0.00 0.00 0.00 46 1011.0
20260510021020 71 42 0.0 0.0 0.00 0.00 0.00 46 1010.9
20260510020914 71 25 0.0 0.0 0.00 0.00 0.00 46 1011.0
20260510020813 71 333 0.0 0.0 0.00 0.00 0.00 46 1010.9
20260510020717 71 42 0.0 0.0 0.00 0.00 0.00 46 1010.9
20260510020612 71 89 0.0 0.0 0.00 0.00 0.00 46 1010.9
20260510020536 71 238 0.0 0.0 0.00 0.00 0.00 46 1010.9
20260510020432 71 27 0.0 0.0 0.00 0.00 0.00 46 1010.9
20260510020355 72 63 0.0 0.0 0.00 0.00 0.00 46 1010.9
20260510020230 72 37 0.0 0.0 0.00 0.00 0.00 46 1010.9
20260510020152 71 334 0.0 0.0 0.00 0.00 0.00 46 1010.9
20260510020135 72 45 0.0 0.0 0.00 0.00 0.00 46 1010.9
20260510020026 72 42 0.0 0.0 0.00 0.00 0.00 46 1010.9
20260510015932 72 68 0.0 0.0 0.00 0.00 0.00 46 1010.9
20260510015825 72 46 0.0 0.0 0.00 0.00 0.00 45 1010.9
20260510015720 72 63 0.0 0.0 0.00 0.00 0.00 45 1010.8
20260510015613 72 58 0.0 0.0 0.00 0.00 0.00 45 1010.8
20260510015518 72 11 0.0 0.0 0.00 0.00 0.00 45 1010.8
20260510015432 72 40 0.0 0.0 0.00 0.00 0.00 45 1010.8
20260510015321 72 51 0.0 0.0 0.00 0.00 0.00 45 1010.7
20260510015214 72 25 0.0 0.0 0.00 0.00 0.00 45 1010.7
20260510015129 72 57 0.0 0.0 0.00 0.00 0.00 45 1010.7
20260510015032 72 57 0.0 0.0 0.00 0.00 0.00 45 1010.7
20260510014927 72 37 0.0 0.0 0.00 0.00 0.00 45 1010.7
20260510014830 72 37 0.0 0.0 0.00 0.00 0.00 45 1010.7
20260510014755 72 343 0.0 1.0 0.00 0.00 0.00 45 1010.7
20260510014628 72 354 0.0 4.0 0.00 0.00 0.00 45 1010.7
20260510014556 72 21 0.0 5.0 0.00 0.00 0.00 45 1010.7
20260510014514 72 15 0.0 5.0 0.00 0.00 0.00 45 1010.7
20260510014430 72 43 0.0 5.0 0.00 0.00 0.00 45 1010.7
20260510014325 72 43 0.0 6.0 0.00 0.00 0.00 45 1010.7
20260510014230 72 49 0.0 6.0 0.00 0.00 0.00 45 1010.7
20260510014121 72 39 0.0 6.0 0.00 0.00 0.00 45 1010.7
20260510014015 73 32 0.0 6.0 0.00 0.00 0.00 44 1010.7
20260510013920 73 44 2.0 6.0 0.00 0.00 0.00 44 1010.7
20260510013818 73 70 2.0 9.0 0.00 0.00 0.00 44 1010.7
20260510013722 73 34 2.0 9.0 0.00 0.00 0.00 44 1010.7
20260510013617 73 35 2.0 13.0 0.00 0.00 0.00 44 1010.6
20260510013542 73 344 2.0 13.0 0.00 0.00 0.00 44 1010.4
20260510013415 73 300 2.0 13.0 0.00 0.00 0.00 44 1010.5
20260510013339 73 41 2.0 13.0 0.00 0.00 0.00 44 1010.5
20260510013233 73 65 3.0 13.0 0.00 0.00 0.00 44 1010.4
20260510013158 73 50 3.0 13.0 0.00 0.00 0.00 44 1010.4
20260510013118 72 48 3.0 13.0 0.00 0.00 0.00 44 1010.4
20260510013015 73 41 3.0 13.0 0.00 0.00 0.00 44 1010.4
20260510012932 73 10 5.0 13.0 0.00 0.00 0.00 44 1010.4
20260510012834 73 116 4.0 13.0 0.00 0.00 0.00 44 1010.3
20260510012728 73 357 4.0 9.0 0.00 0.00 0.00 44 1010.3
20260510012624 73 331 3.0 9.0 0.00 0.00 0.00 44 1010.3
20260510012527 73 44 2.0 9.0 0.00 0.00 0.00 44 1010.3
20260510012422 73 110 3.0 9.0 0.00 0.00 0.00 44 1010.3
20260510012351 73 32 2.0 9.0 0.00 0.00 0.00 44 1010.3
20260510012224 73 41 2.0 8.0 0.00 0.00 0.00 44 1010.2
20260510012119 73 30 3.0 8.0 0.00 0.00 0.00 44 1010.2
20260510012023 73 30 1.0 8.0 0.00 0.00 0.00 45 1010.2
20260510011918 73 44 0.0 0.0 0.00 0.00 0.00 45 1010.2
20260510011813 73 72 0.0 0.0 0.00 0.00 0.00 45 1010.1
20260510011717 73 288 0.0 0.0 0.00 0.00 0.00 45 1010.1
20260510011616 73 52 0.0 0.0 0.00 0.00 0.00 45 1010.1
20260510011540 73 13 0.0 0.0 0.00 0.00 0.00 45 1010.1
20260510011517 72 8 0.0 0.0 0.00 0.00 0.00 45 1010.1
20260510011414 73 268 0.0 0.0 0.00 0.00 0.00 44 1010.1
20260510011330 73 323 0.0 0.0 0.00 0.00 0.00 45 1010.1
20260510011233 73 352 0.0 3.0 0.00 0.00 0.00 45 1010.1
20260510011128 73 57 0.0 3.0 0.00 0.00 0.00 45 1010.1
20260510011023 73 57 0.0 3.0 0.00 0.00 0.00 44 1010.1
20260510010950 73 318 0.0 3.0 0.00 0.00 0.00 44 1010.1
20260510010853 73 317 0.0 3.0 0.00 0.00 0.00 44 1010.1
20260510010726 73 311 0.0 3.0 0.00 0.00 0.00 44 1010.1
20260510010621 73 36 0.0 3.0 0.00 0.00 0.00 44 1010.1
20260510010525 74 37 0.0 3.0 0.00 0.00 0.00 44 1010.1
20260510010420 74 8 0.0 3.0 0.00 0.00 0.00 44 1010.1
20260510010314 74 46 0.0 0.0 0.00 0.00 0.00 43 1010.1
20260510010238 74 350 0.0 0.0 0.00 0.00 0.00 43 1010.0
20260510010156 74 340 0.0 0.0 0.00 0.00 0.00 43 1010.0
20260510010105 73 31 0.0 1.0 0.00 0.00 0.00 44 1010.1
20260510010014 74 44 0.0 1.0 0.00 0.00 0.00 43 1010.0
20260510005931 74 36 0.0 1.0 0.00 0.00 0.00 43 1010.0
20260510005853 74 15 0.0 1.0 0.00 0.00 0.00 43 1010.0
20260510005756 74 55 0.0 1.0 0.00 0.00 0.00 43 1010.0
20260510005630 74 37 0.0 6.0 0.00 0.00 0.00 43 1010.0
20260510005525 74 46 0.0 6.0 0.00 0.00 0.00 43 1009.9
20260510005428 74 46 0.0 6.0 0.00 0.00 0.00 42 1009.9
20260510005327 74 27 0.0 6.0 0.00 0.00 0.00 42 1009.9
20260510005222 75 60 0.0 6.0 0.00 0.00 0.00 42 1009.9
20260510005125 75 27 0.0 6.0 0.00 0.00 0.00 42 1009.9
20260510005018 75 21 1.0 6.0 0.00 0.00 0.00 42 1009.8
20260510004922 75 306 1.0 6.0 0.00 0.00 0.00 42 1009.8
20260510004817 75 55 1.0 5.0 0.00 0.00 0.00 42 1009.8
20260510004740 75 71 1.0 6.0 0.00 0.00 0.00 42 1009.8
20260510004619 75 43 2.0 6.0 0.00 0.00 0.00 42 1009.8
20260510004545 75 359 1.0 6.0 0.00 0.00 0.00 42 1009.8
20260510004513 75 337 1.0 6.0 0.00 0.00 0.00 42 1009.8
20260510004438 75 51 1.0 6.0 0.00 0.00 0.00 41 1009.8
20260510004332 75 305 1.0 6.0 0.00 0.00 0.00 41 1009.8
20260510004236 75 37 1.0 9.0 0.00 0.00 0.00 41 1009.7
20260510004130 75 32 2.0 9.0 0.00 0.00 0.00 41 1009.7
20260510004025 76 41 3.0 9.0 0.00 0.00 0.00 40 1009.6
20260510003933 76 71 2.0 9.0 0.00 0.00 0.00 40 1009.6
20260510003828 76 1 2.0 9.0 0.00 0.00 0.00 40 1009.6
20260510003723 76 321 2.0 9.0 0.00 0.00 0.00 41 1009.6
20260510003627 76 8 2.0 9.0 0.00 0.00 0.00 40 1009.6
20260510003542 76 49 3.0 9.0 0.00 0.00 0.00 40 1009.6
20260510003425 76 76 2.0 9.0 0.00 0.00 0.00 40 1009.6
20260510003340 76 41 0.0 10.0 0.00 0.00 0.00 40 1009.5
20260510003223 76 52 0.0 10.0 0.00 0.00 0.00 40 1009.4
20260510003154 76 53 0.0 10.0 0.00 0.00 0.00 40 1009.4
20260510003122 76 10 0.0 10.0 0.00 0.00 0.00 40 1009.4
20260510003047 76 27 0.0 10.0 0.00 0.00 0.00 40 1009.4
20260510002951 76 63 1.0 10.0 0.00 0.00 0.00 40 1009.4
20260510002824 76 328 3.0 10.0 0.00 0.00 0.00 39 1009.4
20260510002719 76 49 5.0 10.0 0.00 0.00 0.00 39 1009.3
20260510002614 76 46 4.0 10.0 0.00 0.00 0.00 39 1009.3
20260510002517 76 44 3.0 7.0 0.00 0.00 0.00 39 1009.3
20260510002416 76 30 3.0 7.0 0.00 0.00 0.00 39 1009.3
20260510002340 77 32 3.0 7.0 0.00 0.00 0.00 39 1009.3
20260510002235 77 51 3.0 7.0 0.00 0.00 0.00 40 1009.3
20260510002138 76 36 3.0 7.0 0.00 0.00 0.00 40 1009.3
20260510002013 76 53 2.0 7.0 0.00 0.00 0.00 40 1009.2
20260510001936 76 346 2.0 7.0 0.00 0.00 0.00 39 1009.2
20260510001831 76 51 2.0 7.0 0.00 0.00 0.00 40 1009.1
20260510001727 76 264 2.0 7.0 0.00 0.00 0.00 39 1009.1
20260510001635 76 310 2.0 7.0 0.00 0.00 0.00 39 1009.1
20260510001600 76 42 1.0 7.0 0.00 0.00 0.00 40 1009.1
20260510001530 76 53 2.0 7.0 0.00 0.00 0.00 40 1009.1
20260510001425 77 20 1.0 7.0 0.00 0.00 0.00 40 1009.2
20260510001328 77 33 1.0 7.0 0.00 0.00 0.00 40 1009.1
20260510001223 77 23 0.0 6.0 0.00 0.00 0.00 40 1009.1
20260510001147 77 287 0.0 6.0 0.00 0.00 0.00 39 1009.1
20260510001021 77 93 0.0 6.0 0.00 0.00 0.00 39 1009.1
20260510000929 77 290 1.0 6.0 0.00 0.00 0.00 39 1009.1
20260510000824 77 312 1.0 6.0 0.00 0.00 0.00 39 1009.1
20260510000719 77 326 0.0 6.0 0.00 0.00 0.00 39 1009.1
20260510000642 77 64 1.0 6.0 0.00 0.00 0.00 39 1009.1
20260510000545 77 37 2.0 10.0 0.00 0.00 0.00 40 1009.1
20260510000418 77 68 3.0 10.0 0.00 0.00 0.00 39 1009.1
20260510000313 77 349 2.0 10.0 0.00 0.00 0.00 39 1009.1
20260510000236 77 288 2.0 10.0 0.00 0.00 0.00 39 1009.1
20260510000146 77 71 2.0 10.0 0.00 0.00 0.00 39 1009.1
20260510000033 77 326 2.0 10.0 0.00 0.00 0.00 39 1009.1
20260510000010 76 49 1.0 10.0 0.00 0.00 0.00 39 1009.1
20260509235930 77 58 1.0 10.0 0.00 0.00 0.00 39 1009.1
20260509235851 77 53 3.0 10.0 0.00 0.00 0.00 38 1009.1
20260509235726 77 278 2.0 10.0 0.00 0.00 0.00 38 1009.1
20260509235621 77 75 0.0 9.0 0.00 0.00 0.00 38 1009.0
20260509235544 77 316 2.0 9.0 0.00 0.00 0.00 38 1009.0
20260509235447 77 333 3.0 9.0 0.00 0.00 0.00 38 1009.0
20260509235319 77 305 3.0 9.0 0.00 0.00 0.00 38 1008.9
20260509235226 78 347 3.0 7.0 0.00 0.00 0.00 38 1008.9
20260509235121 78 302 2.0 7.0 0.00 0.00 0.00 38 1008.8
20260509235016 78 84 1.0 9.0 0.00 0.00 0.00 38 1008.8
20260509234921 78 160 1.0 9.0 0.00 0.00 0.00 38 1008.9
20260509234815 78 37 2.0 15.0 0.00 0.00 0.00 38 1008.8
20260509234739 78 53 1.0 15.0 0.00 0.00 0.00 38 1008.8
20260509234613 78 302 1.0 15.0 0.00 0.00 0.00 37 1008.8
20260509234533 77 146 2.0 15.0 0.00 0.00 0.00 37 1008.8
20260509234512 78 68 2.0 15.0 0.00 0.00 0.00 37 1008.8
20260509234416 78 67 2.0 15.0 0.00 0.00 0.00 37 1008.7
20260509234331 78 63 3.0 15.0 0.00 0.00 0.00 37 1008.7
20260509234236 78 283 4.0 15.0 0.00 0.00 0.00 37 1008.7
20260509234130 78 13 4.0 15.0 0.00 0.00 0.00 37 1008.7
20260509234054 78 34 3.0 15.0 0.00 0.00 0.00 36 1008.7
20260509233948 78 317 2.0 6.0 0.00 0.00 0.00 36 1008.7
20260509233851 79 22 2.0 6.0 0.00 0.00 0.00 36 1008.7
20260509233728 79 344 0.0 3.0 0.00 0.00 0.00 36 1008.7
20260509233632 79 15 0.0 0.0 0.00 0.00 0.00 37 1008.7
20260509233548 79 86 0.0 0.0 0.00 0.00 0.00 36 1008.7
20260509233431 79 117 0.0 1.0 0.00 0.00 0.00 36 1008.7
20260509233326 79 317 0.0 11.0 0.00 0.00 0.00 36 1008.7
20260509233221 79 52 0.0 11.0 0.00 0.00 0.00 35 1008.7
20260509233126 79 31 0.0 11.0 0.00 0.00 0.00 35 1008.7
20260509233057 79 298 0.0 11.0 0.00 0.00 0.00 35 1008.8
20260509233025 79 325 0.0 11.0 0.00 0.00 0.00 35 1008.8
20260509232950 80 316 0.0 11.0 0.00 0.00 0.00 34 1008.8
20260509232823 80 332 0.0 11.0 0.00 0.00 0.00 35 1008.7
20260509232717 80 305 1.0 11.0 0.00 0.00 0.00 34 1008.7
20260509232621 80 60 3.0 11.0 0.00 0.00 0.00 34 1008.7
20260509232514 80 70 5.0 11.0 0.00 0.00 0.00 34 1008.7
20260509232438 80 44 6.0 11.0 0.00 0.00 0.00 33 1008.7
20260509232317 81 297 3.0 10.0 0.00 0.00 0.00 33 1008.6
20260509232212 81 65 3.0 10.0 0.00 0.00 0.00 33 1008.6
20260509232136 81 11 5.0 10.0 0.00 0.00 0.00 32 1008.6
20260509232031 81 41 3.0 7.0 0.00 0.00 0.00 32 1008.6
20260509231926 81 329 3.0 7.0 0.00 0.00 0.00 32 1008.5
20260509231829 81 304 4.0 7.0 0.00 0.00 0.00 31 1008.5
20260509231723 81 311 2.0 7.0 0.00 0.00 0.00 31 1008.4
20260509231641 80 305 1.0 7.0 0.00 0.00 0.00 31 1008.4
20260509231621 81 314 1.0 7.0 0.00 0.00 0.00 31 1008.3
20260509231524 81 257 2.0 7.0 0.00 0.00 0.00 31 1008.3
20260509231439 81 4 3.0 7.0 0.00 0.00 0.00 32 1008.3
20260509231322 81 259 4.0 7.0 0.00 0.00 0.00 31 1008.2
20260509231217 81 276 4.0 7.0 0.00 0.00 0.00 31 1008.2
20260509231112 81 271 2.0 6.0 0.00 0.00 0.00 32 1008.2
20260509231036 81 286 1.0 6.0 0.00 0.00 0.00 32 1008.2
20260509231000 81 281 0.0 3.0 0.00 0.00 0.00 33 1008.2
20260509230818 81 302 0.0 3.0 0.00 0.00 0.00 32 1008.2
20260509230713 81 275 0.0 3.0 0.00 0.00 0.00 32 1008.2
20260509230615 81 302 0.0 2.0 0.00 0.00 0.00 32 1008.2
20260509230530 81 310 0.0 2.0 0.00 0.00 0.00 32 1008.2
20260509230434 81 243 0.0 3.0 0.00 0.00 0.00 31 1008.1
20260509230328 81 289 0.0 4.0 0.00 0.00 0.00 32 1008.1
20260509230232 81 290 0.0 7.0 0.00 0.00 0.00 31 1008.1
20260509230137 81 271 0.0 7.0 0.00 0.00 0.00 31 1008.1
20260509230050 81 267 0.0 7.0 0.00 0.00 0.00 31 1008.2
20260509225923 81 293 0.0 9.0 0.00 0.00 0.00 31 1008.2
20260509225825 81 277 0.0 12.0 0.00 0.00 0.00 31 1008.2
20260509225720 81 320 0.0 12.0 0.00 0.00 0.00 31 1008.1
20260509225615 81 319 2.0 12.0 0.00 0.00 0.00 31 1008.1
20260509225539 81 310 3.0 12.0 0.00 0.00 0.00 31 1008.1
20260509225414 81 280 3.0 12.0 0.00 0.00 0.00 31 1008.1
20260509225313 81 264 2.0 12.0 0.00 0.00 0.00 31 1008.1
20260509225237 81 301 3.0 12.0 0.00 0.00 0.00 31 1008.1
20260509225131 81 259 5.0 12.0 0.00 0.00 0.00 30 1008.1
20260509225026 81 259 4.0 12.0 0.00 0.00 0.00 30 1008.1
20260509224930 81 268 3.0 8.0 0.00 0.00 0.00 31 1008.1
20260509224825 81 266 4.0 8.0 0.00 0.00 0.00 31 1008.1
20260509224720 81 281 3.0 7.0 0.00 0.00 0.00 30 1008.0
20260509224628 81 273 2.0 7.0 0.00 0.00 0.00 30 1008.0
20260509224559 81 257 2.0 7.0 0.00 0.00 0.00 30 1008.0
20260509224523 81 231 2.0 6.0 0.00 0.00 0.00 30 1008.0
20260509224417 81 270 3.0 6.0 0.00 0.00 0.00 30 1008.0
20260509224321 81 268 3.0 6.0 0.00 0.00 0.00 30 1008.0
20260509224216 81 308 3.0 6.0 0.00 0.00 0.00 30 1007.9
20260509224140 81 295 3.0 6.0 0.00 0.00 0.00 30 1007.9
20260509224019 81 296 3.0 9.0 0.00 0.00 0.00 30 1007.9
20260509223914 82 281 3.0 9.0 0.00 0.00 0.00 29 1007.9
20260509223838 82 261 3.0 9.0 0.00 0.00 0.00 30 1007.9
20260509223753 82 304 4.0 9.0 0.00 0.00 0.00 29 1007.9
20260509223636 82 272 3.0 9.0 0.00 0.00 0.00 29 1007.9
20260509223530 82 330 2.0 9.0 0.00 0.00 0.00 29 1007.9
20260509223434 82 303 3.0 9.0 0.00 0.00 0.00 29 1007.9
20260509223329 82 281 4.0 9.0 0.00 0.00 0.00 29 1007.9
20260509223228 82 244 5.0 9.0 0.00 0.00 0.00 28 1007.9
20260509223152 82 300 4.0 9.0 0.00 0.00 0.00 28 1007.9
20260509223055 82 292 4.0 8.0 0.00 0.00 0.00 29 1008.0
20260509222931 82 282 3.0 9.0 0.00 0.00 0.00 28 1008.0
20260509222835 82 303 3.0 9.0 0.00 0.00 0.00 29 1008.0
20260509222729 82 281 4.0 9.0 0.00 0.00 0.00 28 1008.0
20260509222624 82 281 3.0 9.0 0.00 0.00 0.00 29 1008.0
20260509222548 82 200 4.0 10.0 0.00 0.00 0.00 29 1008.0
20260509222426 82 345 4.0 10.0 0.00 0.00 0.00 29 1007.9
20260509222329 82 281 3.0 10.0 0.00 0.00 0.00 30 1007.9
20260509222225 82 283 5.0 10.0 0.00 0.00 0.00 29 1007.9
20260509222120 82 278 6.0 10.0 0.00 0.00 0.00 28 1008.0
20260509222014 82 310 5.0 10.0 0.00 0.00 0.00 29 1008.0
20260509221918 82 282 5.0 10.0 0.00 0.00 0.00 31 1007.9
20260509221812 82 283 6.0 11.0 0.00 0.00 0.00 30 1007.9
20260509221740 82 302 6.0 11.0 0.00 0.00 0.00 31 1007.9
20260509221614 82 281 1.0 11.0 0.00 0.00 0.00 31 1008.0
20260509221558 82 279 0.0 11.0 0.00 0.00 0.00 33 1008.0
20260509221529 82 305 0.0 11.0 0.00 0.00 0.00 33 1008.0
20260509221434 82 297 1.0 11.0 0.00 0.00 0.00 33 1008.0
20260509221329 82 289 1.0 11.0 0.00 0.00 0.00 32 1007.9
20260509221224 82 287 1.0 11.0 0.00 0.00 0.00 32 1007.9
20260509221128 82 292 3.0 11.0 0.00 0.00 0.00 32 1007.9
20260509221056 82 270 5.0 11.0 0.00 0.00 0.00 31 1007.9
20260509220930 82 323 4.0 11.0 0.00 0.00 0.00 32 1007.8
20260509220825 82 269 5.0 10.0 0.00 0.00 0.00 31 1007.9
20260509220720 82 304 5.0 11.0 0.00 0.00 0.00 31 1007.9
20260509220643 83 304 3.0 12.0 0.00 0.00 0.00 32 1007.8
20260509220517 83 254 3.0 12.0 0.00 0.00 0.00 31 1007.8
20260509220421 83 339 2.0 12.0 0.00 0.00 0.00 31 1007.8
20260509220319 83 229 2.0 12.0 0.00 0.00 0.00 32 1007.8
20260509220244 83 255 3.0 12.0 0.00 0.00 0.00 31 1007.8
20260509220157 83 229 4.0 12.0 0.00 0.00 0.00 30 1007.8
20260509220111 82 342 5.0 12.0 0.00 0.00 0.00 30 1007.8
20260509220016 83 283 6.0 12.0 0.00 0.00 0.00 30 1007.8
20260509215932 83 306 7.0 12.0 0.00 0.00 0.00 29 1007.8
20260509215834 83 287 6.0 12.0 0.00 0.00 0.00 29 1007.8
20260509215729 83 252 4.0 10.0 0.00 0.00 0.00 30 1007.8
20260509215624 83 297 5.0 8.0 0.00 0.00 0.00 30 1007.8
20260509215551 83 311 4.0 10.0 0.00 0.00 0.00 31 1007.8
20260509215455 83 273 1.0 10.0 0.00 0.00 0.00 31 1007.8
20260509215348 83 315 1.0 13.0 0.00 0.00 0.00 31 1007.8
20260509215230 83 278 2.0 13.0 0.00 0.00 0.00 31 1007.8
20260509215125 83 281 3.0 13.0 0.00 0.00 0.00 31 1007.8
20260509215019 83 276 4.0 13.0 0.00 0.00 0.00 29 1007.8
20260509214924 83 311 5.0 13.0 0.00 0.00 0.00 29 1007.8
20260509214838 83 297 6.0 13.0 0.00 0.00 0.00 29 1007.9
20260509214726 83 305 8.0 13.0 0.00 0.00 0.00 29 1007.9
20260509214621 83 276 8.0 13.0 0.00 0.00 0.00 29 1007.8
20260509214532 83 335 6.0 13.0 0.00 0.00 0.00 28 1007.8
20260509214516 84 308 6.0 12.0 0.00 0.00 0.00 29 1007.9
20260509214419 84 265 8.0 12.0 0.00 0.00 0.00 28 1007.8
20260509214313 84 276 7.0 12.0 0.00 0.00 0.00 27 1007.8
20260509214238 84 304 4.0 11.0 0.00 0.00 0.00 28 1007.8
20260509214131 84 300 4.0 11.0 0.00 0.00 0.00 28 1007.8
20260509214035 84 314 4.0 11.0 0.00 0.00 0.00 28 1007.8
20260509213914 84 314 3.0 11.0 0.00 0.00 0.00 28 1007.8
20260509213830 84 341 3.0 11.0 0.00 0.00 0.00 28 1007.8
20260509213733 85 284 4.0 11.0 0.00 0.00 0.00 28 1007.8
20260509213628 85 314 5.0 11.0 0.00 0.00 0.00 28 1007.8
20260509213531 85 315 6.0 11.0 0.00 0.00 0.00 27 1007.8
20260509213447 85 11 4.0 11.0 0.00 0.00 0.00 27 1007.8
20260509213329 85 274 4.0 11.0 0.00 0.00 0.00 27 1007.8
20260509213228 86 297 4.0 11.0 0.00 0.00 0.00 30 1007.8
20260509213142 85 289 3.0 11.0 0.00 0.00 0.00 30 1007.8
20260509213122 86 290 4.0 11.0 0.00 0.00 0.00 29 1007.8
20260509213028 85 291 5.0 11.0 0.00 0.00 0.00 30 1007.8
20260509212922 85 259 6.0 11.0 0.00 0.00 0.00 29 1007.7
20260509212816 85 273 4.0 9.0 0.00 0.00 0.00 29 1007.7
20260509212741 85 224 3.0 9.0 0.00 0.00 0.00 29 1007.7
20260509212645 85 231 3.0 9.0 0.00 0.00 0.00 31 1007.7
20260509212518 85 275 2.0 11.0 0.00 0.00 0.00 30 1007.7
20260509212417 85 250 1.0 13.0 0.00 0.00 0.00 30 1007.7
20260509212321 84 293 2.0 13.0 0.00 0.00 0.00 30 1007.7
20260509212215 84 270 3.0 13.0 0.00 0.00 0.00 30 1007.8
20260509212139 84 302 5.0 13.0 0.00 0.00 0.00 30 1007.8
20260509212013 84 304 5.0 13.0 0.00 0.00 0.00 30 1007.8
20260509211937 84 248 5.0 13.0 0.00 0.00 0.00 30 1007.8
20260509211832 84 255 5.0 13.0 0.00 0.00 0.00 29 1007.8
20260509211756 84 295 6.0 13.0 0.00 0.00 0.00 29 1007.8
20260509211614 84 268 6.0 13.0 0.00 0.00 0.00 29 1007.8
20260509211552 83 322 6.0 13.0 0.00 0.00 0.00 29 1007.8
20260509211529 84 300 6.0 12.0 0.00 0.00 0.00 29 1007.8
20260509211432 84 257 7.0 12.0 0.00 0.00 0.00 28 1007.8
20260509211327 84 296 5.0 11.0 0.00 0.00 0.00 30 1007.8
20260509211221 84 221 6.0 11.0 0.00 0.00 0.00 29 1007.9
20260509211124 84 309 6.0 11.0 0.00 0.00 0.00 29 1007.9
20260509211038 84 294 5.0 12.0 0.00 0.00 0.00 29 1007.9
20260509210926 84 263 5.0 12.0 0.00 0.00 0.00 30 1007.9
20260509210820 84 322 3.0 12.0 0.00 0.00 0.00 31 1007.9
20260509210715 84 309 2.0 12.0 0.00 0.00 0.00 31 1007.9
20260509210619 84 318 2.0 12.0 0.00 0.00 0.00 31 1007.8
20260509210514 84 104 3.0 12.0 0.00 0.00 0.00 30 1007.8
20260509210438 84 294 5.0 19.0 0.00 0.00 0.00 29 1007.8
20260509210312 84 268 7.0 19.0 0.00 0.00 0.00 29 1007.8
20260509210241 84 224 7.0 19.0 0.00 0.00 0.00 29 1007.8
20260509210146 85 5 6.0 19.0 0.00 0.00 0.00 29 1007.8
20260509210034 85 282 5.0 19.0 0.00 0.00 0.00 30 1007.8
20260509210021 84 288 5.0 19.0 0.00 0.00 0.00 30 1007.9
20260509205930 85 295 4.0 19.0 0.00 0.00 0.00 32 1007.9
20260509205822 84 302 4.0 19.0 0.00 0.00 0.00 32 1007.8
20260509205716 84 351 7.0 19.0 0.00 0.00 0.00 31 1007.8
20260509205620 84 304 6.0 19.0 0.00 0.00 0.00 30 1007.8
20260509205519 84 279 5.0 12.0 0.00 0.00 0.00 31 1007.8
20260509205424 84 349 6.0 12.0 0.00 0.00 0.00 31 1007.8
20260509205318 84 302 6.0 12.0 0.00 0.00 0.00 30 1007.9
20260509205221 84 302 6.0 12.0 0.00 0.00 0.00 30 1007.9
20260509205115 84 264 6.0 12.0 0.00 0.00 0.00 30 1008.0
20260509205039 84 311 6.0 12.0 0.00 0.00 0.00 30 1008.0
20260509204933 84 333 5.0 11.0 0.00 0.00 0.00 31 1008.0
20260509204837 84 292 6.0 11.0 0.00 0.00 0.00 29 1008.0
20260509204714 84 307 4.0 9.0 0.00 0.00 0.00 30 1008.1
20260509204638 85 292 3.0 9.0 0.00 0.00 0.00 33 1008.1
20260509204618 84 316 2.0 9.0 0.00 0.00 0.00 33 1008.0
20260509204513 85 288 3.0 9.0 0.00 0.00 0.00 32 1008.1
20260509204428 85 259 3.0 9.0 0.00 0.00 0.00 33 1008.1
20260509204332 85 260 2.0 9.0 0.00 0.00 0.00 35 1008.1